Time,TemperatureF,DewpointF,PressureIn,WindDirection,WindDirectionDegrees,WindSpeedMPH,WindSpeedGustMPH,Humidity,HourlyPrecipIn,Conditions,Clouds,dailyrainin,SoftwareType,DateUTC
2013-10-06 00:00:00,67.7,64.0,29.93,SSW,196,1.0,2.0,88,0.00,,,0.00,WeatherCatV1.20B785,2013-10-06 04:00:00,
2013-10-06 00:01:00,67.6,63.9,29.93,SSW,204,0.0,1.0,88,0.00,,,0.00,WeatherCatV1.20B785,2013-10-06 04:01:00,
2013-10-06 00:03:00,67.6,63.9,29.93,SSW,200,2.0,2.0,88,0.00,,,0.00,WeatherCatV1.20B785,2013-10-06 04:03:00,
2013-10-06 00:04:00,67.6,63.9,29.93,SW,219,4.0,6.0,88,0.00,,,0.00,WeatherCatV1.20B785,2013-10-06 04:04:00,
2013-10-06 00:05:00,67.7,64.0,29.93,SSW,203,1.0,6.0,88,0.00,,,0.00,WeatherCatV1.20B785,2013-10-06 04:05:00,
2013-10-06 00:06:00,67.7,64.0,29.93,SSE,160,2.0,2.0,88,0.00,,,0.00,WeatherCatV1.20B785,2013-10-06 04:06:00,
2013-10-06 00:08:00,67.7,64.0,29.93,South,169,0.0,2.0,88,0.00,,,0.00,WeatherCatV1.20B785,2013-10-06 04:08:00,
2013-10-06 00:10:00,67.7,64.0,29.93,South,179,1.0,2.0,88,0.00,,,0.00,WeatherCatV1.20B785,2013-10-06 04:10:00,
2013-10-06 00:13:00,67.7,64.0,29.93,SSW,212,1.0,4.0,88,0.00,,,0.00,WeatherCatV1.20B785,2013-10-06 04:13:00,
2013-10-06 00:15:00,67.8,64.1,29.93,SSW,196,1.0,3.0,88,0.00,,,0.00,WeatherCatV1.20B785,2013-10-06 04:15:00,
2013-10-06 00:18:00,67.8,64.1,29.93,SSW,200,0.0,2.0,88,0.00,,,0.00,WeatherCatV1.20B785,2013-10-06 04:18:00,
2013-10-06 00:20:00,67.8,64.1,29.93,SSW,196,1.0,1.0,88,0.00,,,0.00,WeatherCatV1.20B785,2013-10-06 04:20:00,
2013-10-06 00:23:00,67.9,64.2,29.93,South,169,1.0,3.0,88,0.00,,,0.00,WeatherCatV1.20B785,2013-10-06 04:23:00,
2013-10-06 00:25:00,67.9,64.2,29.93,SSW,194,1.0,4.0,88,0.00,,,0.00,WeatherCatV1.20B785,2013-10-06 04:25:00,
2013-10-06 00:28:00,68.0,64.3,29.93,WSW,255,1.0,5.0,88,0.00,,,0.00,WeatherCatV1.20B785,2013-10-06 04:28:00,
2013-10-06 00:30:00,68.0,64.3,29.93,SSW,199,1.0,5.0,88,0.00,,,0.00,WeatherCatV1.20B785,2013-10-06 04:30:00,
2013-10-06 00:33:00,68.0,64.3,29.93,SW,226,0.0,1.0,88,0.00,,,0.00,WeatherCatV1.20B785,2013-10-06 04:33:00,
2013-10-06 00:35:00,68.0,64.3,29.93,SSW,212,1.0,1.0,88,0.00,,,0.00,WeatherCatV1.20B785,2013-10-06 04:35:00,
2013-10-06 00:38:00,68.1,64.4,29.93,SW,228,2.0,2.0,88,0.00,,,0.00,WeatherCatV1.20B785,2013-10-06 04:38:00,
2013-10-06 00:40:00,68.1,64.4,29.93,SSW,205,1.0,2.0,88,0.00,,,0.00,WeatherCatV1.20B785,2013-10-06 04:40:00,
2013-10-06 00:43:00,68.1,64.4,29.92,South,170,2.0,5.0,88,0.00,,,0.00,WeatherCatV1.20B785,2013-10-06 04:43:00,
2013-10-06 00:45:00,68.1,64.4,29.92,SSW,198,1.0,5.0,88,0.00,,,0.00,WeatherCatV1.20B785,2013-10-06 04:45:00,
2013-10-06 00:48:00,68.2,64.5,29.92,SSW,197,1.0,7.0,88,0.00,,,0.00,WeatherCatV1.20B785,2013-10-06 04:48:00,
2013-10-06 00:50:00,68.2,64.5,29.92,South,188,2.0,7.0,88,0.00,,,0.00,WeatherCatV1.20B785,2013-10-06 04:50:00,
2013-10-06 00:53:00,68.3,64.6,29.92,SSE,166,1.0,2.0,88,0.00,,,0.00,WeatherCatV1.20B785,2013-10-06 04:53:00,
2013-10-06 00:55:00,68.3,64.6,29.92,South,183,2.0,2.0,88,0.00,,,0.00,WeatherCatV1.20B785,2013-10-06 04:55:00,
2013-10-06 00:58:00,68.3,64.6,29.92,SSW,203,1.0,6.0,88,0.00,,,0.00,WeatherCatV1.20B785,2013-10-06 04:58:00,
2013-10-06 01:00:00,68.3,64.6,29.92,SSW,204,2.0,6.0,88,0.00,,,0.00,WeatherCatV1.20B785,2013-10-06 05:00:00,
2013-10-06 01:03:00,68.4,64.7,29.91,SE,140,2.0,5.0,88,0.00,,,0.00,WeatherCatV1.20B785,2013-10-06 05:03:00,
2013-10-06 01:05:00,68.4,64.7,29.92,SSW,209,2.0,4.0,88,0.00,,,0.00,WeatherCatV1.20B785,2013-10-06 05:05:00,
2013-10-06 01:08:00,68.4,64.7,29.91,SW,221,1.0,2.0,88,0.00,,,0.00,WeatherCatV1.20B785,2013-10-06 05:08:00,
2013-10-06 01:10:00,68.5,64.8,29.91,SSW,194,2.0,2.0,88,0.00,,,0.00,WeatherCatV1.20B785,2013-10-06 05:10:00,
2013-10-06 01:13:00,68.5,64.8,29.91,SSW,194,1.0,4.0,88,0.00,,,0.00,WeatherCatV1.20B785,2013-10-06 05:13:00,
2013-10-06 01:15:00,68.4,64.7,29.91,South,187,2.0,2.0,88,0.00,,,0.00,WeatherCatV1.20B785,2013-10-06 05:15:00,
2013-10-06 01:18:00,68.5,64.8,29.91,SSE,168,3.0,4.0,88,0.00,,,0.00,WeatherCatV1.20B785,2013-10-06 05:18:00,
2013-10-06 01:20:00,68.5,64.8,29.91,South,174,1.0,1.0,88,0.00,,,0.00,WeatherCatV1.20B785,2013-10-06 05:20:00,
2013-10-06 01:23:00,68.5,64.8,29.91,SSW,205,1.0,1.0,88,0.00,,,0.00,WeatherCatV1.20B785,2013-10-06 05:23:00,
2013-10-06 01:25:00,68.4,64.7,29.91,South,190,1.0,2.0,88,0.00,,,0.00,WeatherCatV1.20B785,2013-10-06 05:25:00,
2013-10-06 01:28:00,68.4,64.7,29.91,SSW,211,2.0,3.0,88,0.00,,,0.00,WeatherCatV1.20B785,2013-10-06 05:28:00,
2013-10-06 01:30:00,68.4,64.7,29.91,South,191,1.0,2.0,88,0.00,,,0.00,WeatherCatV1.20B785,2013-10-06 05:30:00,
2013-10-06 01:33:00,68.5,64.8,29.91,SSE,165,2.0,2.0,88,0.00,,,0.00,WeatherCatV1.20B785,2013-10-06 05:33:00,
2013-10-06 01:35:00,68.5,64.8,29.91,South,171,1.0,2.0,88,0.00,,,0.00,WeatherCatV1.20B785,2013-10-06 05:35:00,
2013-10-06 01:38:00,68.5,64.8,29.91,SSE,159,1.0,2.0,88,0.00,,,0.00,WeatherCatV1.20B785,2013-10-06 05:38:00,
2013-10-06 01:40:00,68.5,64.8,29.91,SSE,163,1.0,1.0,88,0.00,,,0.00,WeatherCatV1.20B785,2013-10-06 05:40:00,
2013-10-06 01:43:00,68.5,64.8,29.91,SSE,155,1.0,4.0,88,0.00,,,0.00,WeatherCatV1.20B785,2013-10-06 05:43:00,
2013-10-06 01:45:00,68.5,64.8,29.91,South,173,1.0,3.0,88,0.00,,,0.00,WeatherCatV1.20B785,2013-10-06 05:45:00,
2013-10-06 01:48:00,68.5,64.8,29.91,SSE,149,1.0,1.0,88,0.00,,,0.00,WeatherCatV1.20B785,2013-10-06 05:48:00,
2013-10-06 01:50:00,68.5,64.8,29.91,SSE,155,1.0,1.0,88,0.00,,,0.00,WeatherCatV1.20B785,2013-10-06 05:50:00,
2013-10-06 01:53:00,68.4,64.7,29.91,SSE,149,0.0,1.0,88,0.00,,,0.00,WeatherCatV1.20B785,2013-10-06 05:53:00,
2013-10-06 01:55:00,68.3,64.6,29.91,SSE,151,0.0,0.0,88,0.00,,,0.00,WeatherCatV1.20B785,2013-10-06 05:55:00,
2013-10-06 01:58:00,68.2,64.5,29.91,SSE,149,0.0,0.0,88,0.00,,,0.00,WeatherCatV1.20B785,2013-10-06 05:58:00,
2013-10-06 02:00:00,68.1,64.4,29.91,SSE,150,0.0,0.0,88,0.00,,,0.00,WeatherCatV1.20B785,2013-10-06 06:00:00,
2013-10-06 02:03:00,67.9,64.2,29.91,SSE,149,0.0,0.0,88,0.00,,,0.00,WeatherCatV1.20B785,2013-10-06 06:03:00,
2013-10-06 02:05:00,67.8,64.1,29.91,SSE,149,0.0,0.0,88,0.00,,,0.00,WeatherCatV1.20B785,2013-10-06 06:05:00,
2013-10-06 02:08:00,67.6,63.9,29.91,SSE,150,0.0,0.0,88,0.00,,,0.00,WeatherCatV1.20B785,2013-10-06 06:08:00,
2013-10-06 02:10:00,67.5,63.8,29.91,SSE,150,0.0,0.0,88,0.00,,,0.00,WeatherCatV1.20B785,2013-10-06 06:10:00,
2013-10-06 02:13:00,67.3,63.6,29.91,SSE,155,0.0,1.0,88,0.00,,,0.00,WeatherCatV1.20B785,2013-10-06 06:13:00,
2013-10-06 02:15:00,67.3,63.6,29.91,SSE,153,0.0,2.0,88,0.00,,,0.00,WeatherCatV1.20B785,2013-10-06 06:15:00,
2013-10-06 02:18:00,67.1,63.4,29.91,SSE,160,0.0,1.0,88,0.00,,,0.00,WeatherCatV1.20B785,2013-10-06 06:18:00,
2013-10-06 02:20:00,67.1,63.4,29.91,SSE,157,0.0,1.0,88,0.00,,,0.00,WeatherCatV1.20B785,2013-10-06 06:20:00,
2013-10-06 02:23:00,66.9,63.2,29.91,SSE,159,0.0,0.0,88,0.00,,,0.00,WeatherCatV1.20B785,2013-10-06 06:23:00,
2013-10-06 02:25:00,66.8,63.1,29.91,SSE,159,0.0,0.0,88,0.00,,,0.00,WeatherCatV1.20B785,2013-10-06 06:25:00,
2013-10-06 02:28:00,66.6,62.9,29.90,SSE,159,0.0,1.0,88,0.00,,,0.00,WeatherCatV1.20B785,2013-10-06 06:28:00,
2013-10-06 02:30:00,66.6,62.9,29.90,SSE,159,0.0,1.0,88,0.00,,,0.00,WeatherCatV1.20B785,2013-10-06 06:30:00,
2013-10-06 02:33:00,66.4,62.7,29.91,SSE,155,1.0,1.0,88,0.00,,,0.00,WeatherCatV1.20B785,2013-10-06 06:33:00,
2013-10-06 02:35:00,66.4,62.7,29.91,SSE,158,0.0,1.0,88,0.00,,,0.00,WeatherCatV1.20B785,2013-10-06 06:35:00,
2013-10-06 02:38:00,66.5,62.8,29.91,SSE,149,0.0,0.0,88,0.00,,,0.00,WeatherCatV1.20B785,2013-10-06 06:38:00,
2013-10-06 02:40:00,66.5,62.8,29.91,SSE,155,0.0,0.0,88,0.00,,,0.00,WeatherCatV1.20B785,2013-10-06 06:40:00,
2013-10-06 02:43:00,66.7,63.0,29.91,SSE,155,1.0,2.0,88,0.00,,,0.00,WeatherCatV1.20B785,2013-10-06 06:43:00,
2013-10-06 02:45:00,66.7,63.0,29.91,SSE,166,1.0,2.0,88,0.00,,,0.00,WeatherCatV1.20B785,2013-10-06 06:45:00,
2013-10-06 02:48:00,66.9,63.2,29.90,SSE,159,1.0,2.0,88,0.00,,,0.00,WeatherCatV1.20B785,2013-10-06 06:48:00,
2013-10-06 02:50:00,66.9,63.2,29.90,SSE,160,1.0,2.0,88,0.00,,,0.00,WeatherCatV1.20B785,2013-10-06 06:50:00,
2013-10-06 02:53:00,67.0,63.3,29.90,SSE,155,1.0,2.0,88,0.00,,,0.00,WeatherCatV1.20B785,2013-10-06 06:53:00,
2013-10-06 02:55:00,67.0,63.3,29.90,SSE,157,1.0,2.0,88,0.00,,,0.00,WeatherCatV1.20B785,2013-10-06 06:55:00,
2013-10-06 02:58:00,67.1,63.4,29.90,SSE,160,1.0,1.0,88,0.00,,,0.00,WeatherCatV1.20B785,2013-10-06 06:58:00,
2013-10-06 03:00:00,67.1,63.4,29.90,SSE,157,1.0,2.0,88,0.00,,,0.00,WeatherCatV1.20B785,2013-10-06 07:00:00,
2013-10-06 03:03:00,67.2,63.5,29.90,SSE,160,2.0,3.0,88,0.00,,,0.00,WeatherCatV1.20B785,2013-10-06 07:03:00,
2013-10-06 03:05:00,67.2,63.5,29.90,SSE,157,1.0,2.0,88,0.00,,,0.00,WeatherCatV1.20B785,2013-10-06 07:05:00,
2013-10-06 03:08:00,67.2,63.5,29.90,SE,138,0.0,2.0,88,0.00,,,0.00,WeatherCatV1.20B785,2013-10-06 07:08:00,
2013-10-06 03:10:00,67.2,63.5,29.90,SSE,157,1.0,0.0,88,0.00,,,0.00,WeatherCatV1.20B785,2013-10-06 07:10:00,
2013-10-06 03:13:00,67.3,63.6,29.90,SSE,159,0.0,0.0,88,0.00,,,0.00,WeatherCatV1.20B785,2013-10-06 07:13:00,
2013-10-06 03:15:00,67.3,63.6,29.89,SSE,159,1.0,0.0,88,0.00,,,0.00,WeatherCatV1.20B785,2013-10-06 07:15:00,
2013-10-06 03:18:00,67.2,63.5,29.89,SSE,160,0.0,0.0,88,0.00,,,0.00,WeatherCatV1.20B785,2013-10-06 07:18:00,
2013-10-06 03:20:00,67.2,63.5,29.89,SSE,159,0.0,1.0,88,0.00,,,0.00,WeatherCatV1.20B785,2013-10-06 07:20:00,
2013-10-06 03:23:00,67.2,63.5,29.89,SSE,159,0.0,0.0,88,0.00,,,0.00,WeatherCatV1.20B785,2013-10-06 07:23:00,
2013-10-06 03:25:00,67.1,63.4,29.89,SSE,159,0.0,0.0,88,0.00,,,0.00,WeatherCatV1.20B785,2013-10-06 07:25:00,
2013-10-06 03:28:00,67.1,63.4,29.89,SSE,159,0.0,0.0,88,0.00,,,0.00,WeatherCatV1.20B785,2013-10-06 07:28:00,
2013-10-06 03:30:00,67.0,63.3,29.89,SSE,159,0.0,0.0,88,0.00,,,0.00,WeatherCatV1.20B785,2013-10-06 07:30:00,
2013-10-06 03:33:00,67.0,63.3,29.89,SSE,160,0.0,0.0,88,0.00,,,0.00,WeatherCatV1.20B785,2013-10-06 07:33:00,
2013-10-06 03:35:00,66.9,63.2,29.89,SSE,159,0.0,0.0,88,0.00,,,0.00,WeatherCatV1.20B785,2013-10-06 07:35:00,
2013-10-06 03:38:00,66.9,63.2,29.89,SSE,159,0.0,0.0,88,0.00,,,0.00,WeatherCatV1.20B785,2013-10-06 07:38:00,
2013-10-06 03:40:00,66.8,63.1,29.89,SSE,159,0.0,0.0,88,0.00,,,0.00,WeatherCatV1.20B785,2013-10-06 07:40:00,
2013-10-06 03:43:00,66.7,63.0,29.89,SSE,160,0.0,0.0,88,0.00,,,0.00,WeatherCatV1.20B785,2013-10-06 07:43:00,
2013-10-06 03:45:00,66.6,62.9,29.89,SSE,159,0.0,0.0,88,0.00,,,0.00,WeatherCatV1.20B785,2013-10-06 07:45:00,
2013-10-06 03:48:00,66.5,62.8,29.89,SSE,160,0.0,0.0,88,0.00,,,0.00,WeatherCatV1.20B785,2013-10-06 07:48:00,
2013-10-06 03:50:00,66.4,62.7,29.88,SSE,159,0.0,0.0,88,0.00,,,0.00,WeatherCatV1.20B785,2013-10-06 07:50:00,
2013-10-06 03:53:00,66.4,62.7,29.88,SSE,160,0.0,0.0,88,0.00,,,0.00,WeatherCatV1.20B785,2013-10-06 07:53:00,
2013-10-06 03:55:00,66.3,62.6,29.88,SSE,159,0.0,0.0,88,0.00,,,0.00,WeatherCatV1.20B785,2013-10-06 07:55:00,
2013-10-06 03:58:00,66.2,62.5,29.89,SSE,160,0.0,0.0,88,0.00,,,0.00,WeatherCatV1.20B785,2013-10-06 07:58:00,
2013-10-06 04:00:00,66.3,62.6,29.89,SSE,159,0.0,0.0,88,0.00,,,0.00,WeatherCatV1.20B785,2013-10-06 08:00:00,
2013-10-06 04:03:00,66.3,62.6,29.89,SSE,166,1.0,2.0,88,0.00,,,0.00,WeatherCatV1.20B785,2013-10-06 08:03:00,
2013-10-06 04:05:00,66.3,62.6,29.89,SSE,163,0.0,1.0,88,0.00,,,0.00,WeatherCatV1.20B785,2013-10-06 08:05:00,
2013-10-06 04:08:00,66.4,62.7,29.89,SSE,152,1.0,1.0,88,0.00,,,0.00,WeatherCatV1.20B785,2013-10-06 08:08:00,
2013-10-06 04:10:00,66.4,62.7,29.89,SSE,158,1.0,1.0,88,0.00,,,0.00,WeatherCatV1.20B785,2013-10-06 08:10:00,
2013-10-06 04:13:00,66.5,62.8,29.88,SE,136,1.0,1.0,88,0.00,,,0.00,WeatherCatV1.20B785,2013-10-06 08:13:00,
2013-10-06 04:15:00,66.5,62.8,29.88,SSE,149,1.0,2.0,88,0.00,,,0.00,WeatherCatV1.20B785,2013-10-06 08:15:00,
2013-10-06 04:18:00,66.6,62.9,29.88,SE,141,0.0,3.0,88,0.00,,,0.00,WeatherCatV1.20B785,2013-10-06 08:18:00,
2013-10-06 04:20:00,66.6,62.9,29.88,SE,146,1.0,3.0,88,0.00,,,0.00,WeatherCatV1.20B785,2013-10-06 08:20:00,
2013-10-06 04:23:00,66.6,62.9,29.88,SSE,155,0.0,2.0,88,0.00,,,0.00,WeatherCatV1.20B785,2013-10-06 08:23:00,
2013-10-06 04:25:00,66.6,62.9,29.88,SSE,148,1.0,3.0,88,0.00,,,0.00,WeatherCatV1.20B785,2013-10-06 08:25:00,
2013-10-06 04:28:00,66.6,62.9,29.88,SSE,155,1.0,1.0,88,0.00,,,0.00,WeatherCatV1.20B785,2013-10-06 08:28:00,
2013-10-06 04:30:00,66.7,63.0,29.88,SSE,155,1.0,1.0,88,0.00,,,0.00,WeatherCatV1.20B785,2013-10-06 08:30:00,
2013-10-06 04:33:00,66.6,62.9,29.88,SSE,155,1.0,1.0,88,0.00,,,0.00,WeatherCatV1.20B785,2013-10-06 08:33:00,
2013-10-06 04:35:00,66.6,62.9,29.88,SSE,156,1.0,2.0,88,0.00,,,0.00,WeatherCatV1.20B785,2013-10-06 08:35:00,
2013-10-06 04:38:00,66.6,62.9,29.88,South,177,3.0,3.0,88,0.00,,,0.00,WeatherCatV1.20B785,2013-10-06 08:38:00,
2013-10-06 04:40:00,66.7,63.0,29.88,SSE,157,1.0,2.0,88,0.00,,,0.00,WeatherCatV1.20B785,2013-10-06 08:40:00,
2013-10-06 04:43:00,66.7,63.0,29.88,SSE,156,0.0,2.0,88,0.00,,,0.00,WeatherCatV1.20B785,2013-10-06 08:43:00,
2013-10-06 04:45:00,66.7,63.0,29.88,SSE,158,1.0,2.0,88,0.00,,,0.00,WeatherCatV1.20B785,2013-10-06 08:45:00,
2013-10-06 04:48:00,66.7,63.0,29.88,SE,141,1.0,1.0,88,0.00,,,0.00,WeatherCatV1.20B785,2013-10-06 08:48:00,
2013-10-06 04:50:00,66.7,63.0,29.88,SSE,149,1.0,1.0,88,0.00,,,0.00,WeatherCatV1.20B785,2013-10-06 08:50:00,
2013-10-06 04:53:00,66.6,62.9,29.88,SSE,152,1.0,1.0,88,0.00,,,0.00,WeatherCatV1.20B785,2013-10-06 08:53:00,
2013-10-06 04:55:00,66.6,62.9,29.88,SSE,150,1.0,1.0,88,0.00,,,0.00,WeatherCatV1.20B785,2013-10-06 08:55:00,
2013-10-06 04:58:00,66.6,62.9,29.88,SSE,152,1.0,2.0,88,0.00,,,0.00,WeatherCatV1.20B785,2013-10-06 08:58:00,
2013-10-06 05:00:00,66.6,62.9,29.88,SSE,152,1.0,2.0,88,0.00,,,0.00,WeatherCatV1.20B785,2013-10-06 09:00:00,
2013-10-06 05:04:00,66.4,62.7,29.88,SSE,153,0.0,1.0,88,0.00,,,0.00,WeatherCatV1.20B785,2013-10-06 09:04:00,
2013-10-06 05:05:00,66.3,62.6,29.88,SSE,153,1.0,1.0,88,0.00,,,0.00,WeatherCatV1.20B785,2013-10-06 09:05:00,
2013-10-06 05:09:00,66.1,62.4,29.88,SSE,162,1.0,1.0,88,0.00,,,0.00,WeatherCatV1.20B785,2013-10-06 09:09:00,
2013-10-06 05:10:00,66.0,62.3,29.88,SSE,156,1.0,1.0,88,0.00,,,0.00,WeatherCatV1.20B785,2013-10-06 09:10:00,
2013-10-06 05:14:00,65.8,62.1,29.88,SSE,160,1.0,1.0,88,0.00,,,0.00,WeatherCatV1.20B785,2013-10-06 09:14:00,
2013-10-06 05:15:00,65.7,62.0,29.88,SSE,158,1.0,1.0,88,0.00,,,0.00,WeatherCatV1.20B785,2013-10-06 09:15:00,
2013-10-06 05:19:00,65.6,61.9,29.88,SSE,156,1.0,1.0,88,0.00,,,0.00,WeatherCatV1.20B785,2013-10-06 09:19:00,
2013-10-06 05:20:00,65.6,62.0,29.88,SSE,158,1.0,2.0,88,0.00,,,0.00,WeatherCatV1.20B785,2013-10-06 09:20:00,
2013-10-06 05:22:00,65.5,61.8,29.88,SSE,160,2.0,2.0,88,0.00,,,0.00,WeatherCatV1.20B785,2013-10-06 09:22:00,
2013-10-06 05:25:00,65.5,61.8,29.88,SSE,159,1.0,2.0,88,0.00,,,0.00,WeatherCatV1.20B785,2013-10-06 09:25:00,
2013-10-06 05:27:00,65.4,61.8,29.88,SSE,160,2.0,2.0,88,0.00,,,0.00,WeatherCatV1.20B785,2013-10-06 09:27:00,
2013-10-06 05:30:00,65.5,61.8,29.88,SSE,158,1.0,1.0,88,0.00,,,0.00,WeatherCatV1.20B785,2013-10-06 09:30:00,
2013-10-06 05:32:00,65.6,61.9,29.88,SSE,158,1.0,1.0,88,0.00,,,0.00,WeatherCatV1.20B785,2013-10-06 09:32:00,
2013-10-06 05:35:00,65.6,62.0,29.88,SSE,158,1.0,1.0,88,0.00,,,0.00,WeatherCatV1.20B785,2013-10-06 09:35:00,
2013-10-06 05:37:00,65.7,62.0,29.88,SSE,158,1.0,1.0,88,0.00,,,0.00,WeatherCatV1.20B785,2013-10-06 09:37:00,
2013-10-06 05:40:00,65.6,62.0,29.88,SSE,158,1.0,1.0,88,0.00,,,0.00,WeatherCatV1.20B785,2013-10-06 09:40:00,
2013-10-06 05:42:00,65.6,61.9,29.88,SSE,158,1.0,1.0,88,0.00,,,0.00,WeatherCatV1.20B785,2013-10-06 09:42:00,
2013-10-06 05:45:00,65.6,62.0,29.88,SSE,158,1.0,1.0,88,0.00,,,0.00,WeatherCatV1.20B785,2013-10-06 09:45:00,
2013-10-06 05:47:00,65.6,61.9,29.88,SSE,158,0.0,1.0,88,0.00,,,0.00,WeatherCatV1.20B785,2013-10-06 09:47:00,
2013-10-06 05:50:00,65.6,62.0,29.88,SSE,157,1.0,2.0,88,0.00,,,0.00,WeatherCatV1.20B785,2013-10-06 09:50:00,
2013-10-06 05:52:00,65.6,61.9,29.88,SSE,160,1.0,2.0,88,0.00,,,0.00,WeatherCatV1.20B785,2013-10-06 09:52:00,
2013-10-06 05:55:00,65.7,62.0,29.88,SSE,157,1.0,1.0,88,0.00,,,0.00,WeatherCatV1.20B785,2013-10-06 09:55:00,
2013-10-06 05:57:00,65.7,62.0,29.88,SSE,160,0.0,1.0,88,0.00,,,0.00,WeatherCatV1.20B785,2013-10-06 09:57:00,
2013-10-06 06:00:00,65.7,62.0,29.88,SSE,157,1.0,2.0,88,0.00,,,0.00,WeatherCatV1.20B785,2013-10-06 10:00:00,
2013-10-06 06:02:00,65.8,62.1,29.88,SSE,156,0.0,2.0,88,0.00,,,0.00,WeatherCatV1.20B785,2013-10-06 10:02:00,
2013-10-06 06:05:00,65.8,62.1,29.88,SSE,157,1.0,2.0,88,0.00,,,0.00,WeatherCatV1.20B785,2013-10-06 10:05:00,
2013-10-06 06:07:00,65.9,62.2,29.88,SSE,157,2.0,2.0,88,0.00,,,0.00,WeatherCatV1.20B785,2013-10-06 10:07:00,
2013-10-06 06:10:00,65.9,62.2,29.88,SSE,155,1.0,2.0,88,0.00,,,0.00,WeatherCatV1.20B785,2013-10-06 10:10:00,
2013-10-06 06:12:00,66.0,62.3,29.88,SSE,155,1.0,2.0,88,0.00,,,0.00,WeatherCatV1.20B785,2013-10-06 10:12:00,
2013-10-06 06:15:00,66.1,62.4,29.88,SSE,156,1.0,2.0,88,0.00,,,0.00,WeatherCatV1.20B785,2013-10-06 10:15:00,
2013-10-06 06:17:00,66.2,62.5,29.87,SSE,155,1.0,2.0,88,0.00,,,0.00,WeatherCatV1.20B785,2013-10-06 10:17:00,
2013-10-06 06:20:00,66.2,62.5,29.87,SSE,156,1.0,2.0,88,0.00,,,0.00,WeatherCatV1.20B785,2013-10-06 10:20:00,
2013-10-06 06:22:00,66.2,62.5,29.87,SSE,153,1.0,1.0,88,0.00,,,0.00,WeatherCatV1.20B785,2013-10-06 10:22:00,
2013-10-06 06:25:00,66.3,62.6,29.87,SSE,155,1.0,3.0,88,0.00,,,0.00,WeatherCatV1.20B785,2013-10-06 10:25:00,
2013-10-06 06:27:00,66.3,62.6,29.87,SSE,158,1.0,2.0,88,0.00,,,0.00,WeatherCatV1.20B785,2013-10-06 10:27:00,
2013-10-06 06:30:00,66.3,62.6,29.87,SSE,156,1.0,1.0,88,0.00,,,0.00,WeatherCatV1.20B785,2013-10-06 10:30:00,
2013-10-06 06:32:00,66.3,62.6,29.87,SSE,152,1.0,1.0,88,0.00,,,0.00,WeatherCatV1.20B785,2013-10-06 10:32:00,
2013-10-06 06:35:00,66.3,62.6,29.87,SSE,154,1.0,2.0,88,0.00,,,0.00,WeatherCatV1.20B785,2013-10-06 10:35:00,
2013-10-06 06:37:00,66.2,62.5,29.87,SSE,154,0.0,1.0,88,0.00,,,0.00,WeatherCatV1.20B785,2013-10-06 10:37:00,
2013-10-06 06:40:00,66.1,62.4,29.87,SSE,154,1.0,1.0,88,0.00,,,0.00,WeatherCatV1.20B785,2013-10-06 10:40:00,
2013-10-06 06:42:00,66.0,62.3,29.87,SSE,155,1.0,1.0,88,0.00,,,0.00,WeatherCatV1.20B785,2013-10-06 10:42:00,
2013-10-06 06:45:00,66.0,62.3,29.87,SSE,155,1.0,1.0,88,0.00,,,0.00,WeatherCatV1.20B785,2013-10-06 10:45:00,
2013-10-06 06:47:00,66.0,62.3,29.87,SSE,155,0.0,1.0,88,0.00,,,0.00,WeatherCatV1.20B785,2013-10-06 10:47:00,
2013-10-06 06:50:00,65.9,62.2,29.87,SSE,154,0.0,1.0,88,0.00,,,0.00,WeatherCatV1.20B785,2013-10-06 10:50:00,
2013-10-06 06:52:00,65.9,62.2,29.87,SSE,153,0.0,0.0,88,0.00,,,0.00,WeatherCatV1.20B785,2013-10-06 10:52:00,
2013-10-06 06:55:00,65.8,62.1,29.87,SSE,153,0.0,0.0,88,0.00,,,0.00,WeatherCatV1.20B785,2013-10-06 10:55:00,
2013-10-06 06:57:00,65.8,62.1,29.87,SSE,153,0.0,0.0,88,0.00,,,0.00,WeatherCatV1.20B785,2013-10-06 10:57:00,
2013-10-06 07:00:00,65.7,62.0,29.87,SSE,153,0.0,0.0,88,0.00,,,0.00,WeatherCatV1.20B785,2013-10-06 11:00:00,
2013-10-06 07:02:00,65.7,62.0,29.87,SSE,153,0.0,0.0,88,0.00,,,0.00,WeatherCatV1.20B785,2013-10-06 11:02:00,
2013-10-06 07:05:00,65.6,62.0,29.87,SSE,152,0.0,0.0,88,0.00,,,0.00,WeatherCatV1.20B785,2013-10-06 11:05:00,
2013-10-06 07:07:00,65.6,61.9,29.87,SSE,153,0.0,0.0,88,0.00,,,0.00,WeatherCatV1.20B785,2013-10-06 11:07:00,
2013-10-06 07:10:00,65.6,62.0,29.87,SSE,152,0.0,0.0,88,0.00,,,0.00,WeatherCatV1.20B785,2013-10-06 11:10:00,
2013-10-06 07:12:00,65.6,61.9,29.87,SSE,152,0.0,0.0,88,0.00,,,0.00,WeatherCatV1.20B785,2013-10-06 11:12:00,
2013-10-06 07:15:00,65.5,61.8,29.87,SSE,152,0.0,0.0,88,0.00,,,0.00,WeatherCatV1.20B785,2013-10-06 11:15:00,
2013-10-06 07:17:00,65.5,61.8,29.87,SSE,153,0.0,0.0,88,0.00,,,0.00,WeatherCatV1.20B785,2013-10-06 11:17:00,
2013-10-06 07:20:00,65.5,61.8,29.87,SSE,152,0.0,0.0,88,0.00,,,0.00,WeatherCatV1.20B785,2013-10-06 11:20:00,
2013-10-06 07:22:00,65.4,61.8,29.87,SSE,152,0.0,0.0,88,0.00,,,0.00,WeatherCatV1.20B785,2013-10-06 11:22:00,
2013-10-06 07:25:00,65.4,61.8,29.87,SSE,152,0.0,0.0,88,0.00,,,0.00,WeatherCatV1.20B785,2013-10-06 11:25:00,
2013-10-06 07:27:00,65.4,61.8,29.87,SSE,153,0.0,0.0,88,0.00,,,0.00,WeatherCatV1.20B785,2013-10-06 11:27:00,
2013-10-06 07:30:00,65.5,61.8,29.87,SSE,152,0.0,0.0,88,0.00,,,0.00,WeatherCatV1.20B785,2013-10-06 11:30:00,
2013-10-06 07:32:00,65.5,61.8,29.88,SSE,154,0.0,1.0,88,0.00,,,0.00,WeatherCatV1.20B785,2013-10-06 11:32:00,
2013-10-06 07:35:00,65.5,61.8,29.87,SSE,153,0.0,0.0,88,0.00,,,0.00,WeatherCatV1.20B785,2013-10-06 11:35:00,
2013-10-06 07:37:00,65.6,61.9,29.88,SSE,155,0.0,0.0,88,0.00,,,0.00,WeatherCatV1.20B785,2013-10-06 11:37:00,
2013-10-06 07:40:00,65.6,62.0,29.87,SSE,154,0.0,0.0,88,0.00,,,0.00,WeatherCatV1.20B785,2013-10-06 11:40:00,
2013-10-06 07:42:00,65.6,61.9,29.87,SSE,155,0.0,0.0,88,0.00,,,0.00,WeatherCatV1.20B785,2013-10-06 11:42:00,
2013-10-06 07:45:00,65.6,62.0,29.87,SSE,155,0.0,0.0,88,0.00,,,0.00,WeatherCatV1.20B785,2013-10-06 11:45:00,
2013-10-06 07:47:00,65.6,61.9,29.88,SSE,155,1.0,1.0,88,0.00,,,0.00,WeatherCatV1.20B785,2013-10-06 11:47:00,
2013-10-06 07:50:00,65.7,62.0,29.87,SSE,155,0.0,2.0,88,0.00,,,0.00,WeatherCatV1.20B785,2013-10-06 11:50:00,
2013-10-06 07:52:00,65.7,62.0,29.88,SSE,152,1.0,1.0,88,0.00,,,0.00,WeatherCatV1.20B785,2013-10-06 11:52:00,
2013-10-06 07:55:00,65.8,62.1,29.88,SSE,154,1.0,2.0,88,0.00,,,0.00,WeatherCatV1.20B785,2013-10-06 11:55:00,
2013-10-06 07:57:00,65.9,62.2,29.88,SSE,158,0.0,0.0,88,0.00,,,0.00,WeatherCatV1.20B785,2013-10-06 11:57:00,
2013-10-06 08:00:00,66.0,62.3,29.88,SSE,155,1.0,1.0,88,0.00,,,0.00,WeatherCatV1.20B785,2013-10-06 12:00:00,
2013-10-06 08:02:00,66.1,62.4,29.88,SSE,153,1.0,2.0,88,0.00,,,0.00,WeatherCatV1.20B785,2013-10-06 12:02:00,
2013-10-06 08:05:00,66.2,62.5,29.88,SSE,155,1.0,1.0,88,0.00,,,0.00,WeatherCatV1.20B785,2013-10-06 12:05:00,
2013-10-06 08:07:00,66.3,62.6,29.88,SSE,154,0.0,1.0,88,0.00,,,0.00,WeatherCatV1.20B785,2013-10-06 12:07:00,
2013-10-06 08:10:00,66.4,62.7,29.88,SSE,154,0.0,0.0,88,0.00,,,0.00,WeatherCatV1.20B785,2013-10-06 12:10:00,
2013-10-06 08:12:00,66.4,62.7,29.88,SSE,153,0.0,0.0,88,0.00,,,0.00,WeatherCatV1.20B785,2013-10-06 12:12:00,
2013-10-06 08:15:00,66.5,62.8,29.88,SSE,154,0.0,0.0,88,0.00,,,0.00,WeatherCatV1.20B785,2013-10-06 12:15:00,
2013-10-06 08:17:00,66.6,62.9,29.88,SSE,155,0.0,0.0,88,0.00,,,0.00,WeatherCatV1.20B785,2013-10-06 12:17:00,
2013-10-06 08:20:00,66.7,63.0,29.88,SSE,155,0.0,0.0,88,0.00,,,0.00,WeatherCatV1.20B785,2013-10-06 12:20:00,
2013-10-06 08:22:00,66.8,63.1,29.88,SSE,154,0.0,1.0,88,0.00,,,0.00,WeatherCatV1.20B785,2013-10-06 12:22:00,
2013-10-06 08:25:00,66.9,63.2,29.88,SSE,154,0.0,0.0,88,0.00,,,0.00,WeatherCatV1.20B785,2013-10-06 12:25:00,
2013-10-06 08:27:00,67.0,63.3,29.88,SSE,156,0.0,1.0,88,0.00,,,0.00,WeatherCatV1.20B785,2013-10-06 12:27:00,
2013-10-06 08:30:00,67.1,63.4,29.88,SSE,155,0.0,0.0,88,0.00,,,0.00,WeatherCatV1.20B785,2013-10-06 12:30:00,
2013-10-06 08:32:00,67.2,63.5,29.88,SSE,152,0.0,0.0,88,0.00,,,0.00,WeatherCatV1.20B785,2013-10-06 12:32:00,
2013-10-06 08:35:00,67.3,63.6,29.88,SE,136,0.0,2.0,88,0.00,,,0.00,WeatherCatV1.20B785,2013-10-06 12:35:00,
2013-10-06 08:37:00,67.3,63.6,29.88,ENE,76,1.0,1.0,88,0.00,,,0.00,WeatherCatV1.20B785,2013-10-06 12:37:00,
2013-10-06 08:40:00,67.3,63.6,29.88,ESE,103,0.0,1.0,88,0.00,,,0.00,WeatherCatV1.20B785,2013-10-06 12:40:00,
2013-10-06 08:42:00,67.3,63.6,29.88,ESE,108,1.0,1.0,88,0.00,,,0.00,WeatherCatV1.20B785,2013-10-06 12:42:00,
2013-10-06 08:45:00,67.3,63.6,29.88,East,101,0.0,2.0,88,0.00,,,0.00,WeatherCatV1.20B785,2013-10-06 12:45:00,
2013-10-06 08:47:00,67.3,63.6,29.88,ESE,121,1.0,1.0,88,0.00,,,0.00,WeatherCatV1.20B785,2013-10-06 12:47:00,
2013-10-06 08:50:00,67.3,63.6,29.88,ESE,104,0.0,1.0,88,0.00,,,0.00,WeatherCatV1.20B785,2013-10-06 12:50:00,
2013-10-06 08:52:00,67.4,63.7,29.88,SSE,152,0.0,2.0,88,0.00,,,0.00,WeatherCatV1.20B785,2013-10-06 12:52:00,
2013-10-06 08:55:00,67.4,63.7,29.88,SE,135,0.0,2.0,88,0.00,,,0.00,WeatherCatV1.20B785,2013-10-06 12:55:00,
2013-10-06 08:57:00,67.4,63.7,29.87,ESE,119,1.0,1.0,88,0.00,,,0.00,WeatherCatV1.20B785,2013-10-06 12:57:00,
2013-10-06 09:00:00,67.4,63.7,29.87,SE,136,1.0,1.0,88,0.00,,,0.00,WeatherCatV1.20B785,2013-10-06 13:00:00,
2013-10-06 09:02:00,67.5,63.8,29.87,SSE,149,1.0,1.0,88,0.00,,,0.00,WeatherCatV1.20B785,2013-10-06 13:02:00,
2013-10-06 09:05:00,67.5,63.8,29.87,SE,143,1.0,1.0,88,0.00,,,0.00,WeatherCatV1.20B785,2013-10-06 13:05:00,
2013-10-06 09:07:00,67.6,63.9,29.87,SE,134,1.0,1.0,88,0.00,,,0.00,WeatherCatV1.20B785,2013-10-06 13:07:00,
2013-10-06 09:10:00,67.7,64.0,29.87,SE,132,0.0,1.0,88,0.00,,,0.00,WeatherCatV1.20B785,2013-10-06 13:10:00,
2013-10-06 09:12:00,67.7,64.0,29.87,SSE,157,1.0,1.0,88,0.00,,,0.00,WeatherCatV1.20B785,2013-10-06 13:12:00,
2013-10-06 09:15:00,67.8,64.1,29.87,SE,140,1.0,1.0,88,0.00,,,0.00,WeatherCatV1.20B785,2013-10-06 13:15:00,
2013-10-06 09:17:00,67.9,64.2,29.87,SSE,153,2.0,2.0,88,0.00,,,0.00,WeatherCatV1.20B785,2013-10-06 13:17:00,
2013-10-06 09:20:00,68.0,64.3,29.87,SSE,150,1.0,2.0,88,0.00,,,0.00,WeatherCatV1.20B785,2013-10-06 13:20:00,
2013-10-06 09:22:00,68.1,64.4,29.87,SSE,153,2.0,4.0,88,0.00,,,0.00,WeatherCatV1.20B785,2013-10-06 13:22:00,
2013-10-06 09:25:00,68.2,64.5,29.87,SSE,151,2.0,4.0,88,0.00,,,0.00,WeatherCatV1.20B785,2013-10-06 13:25:00,
2013-10-06 09:27:00,68.2,64.5,29.86,SSE,152,2.0,4.0,88,0.00,,,0.00,WeatherCatV1.20B785,2013-10-06 13:27:00,
2013-10-06 09:30:00,68.3,64.6,29.87,SSE,153,2.0,4.0,88,0.00,,,0.00,WeatherCatV1.20B785,2013-10-06 13:30:00,
2013-10-06 09:32:00,68.5,64.8,29.87,SSE,163,3.0,3.0,88,0.00,,,0.00,WeatherCatV1.20B785,2013-10-06 13:32:00,
2013-10-06 09:35:00,68.7,65.3,29.86,SSE,158,3.0,5.0,89,0.00,,,0.00,WeatherCatV1.20B785,2013-10-06 13:35:00,
2013-10-06 09:37:00,68.8,65.4,29.86,SSE,161,4.0,5.0,89,0.00,,,0.00,WeatherCatV1.20B785,2013-10-06 13:37:00,
2013-10-06 09:40:00,69.0,65.6,29.86,SSE,159,3.0,4.0,89,0.00,,,0.00,WeatherCatV1.20B785,2013-10-06 13:40:00,
2013-10-06 09:42:00,69.1,65.7,29.86,SSE,163,3.0,3.0,89,0.00,,,0.00,WeatherCatV1.20B785,2013-10-06 13:42:00,
2013-10-06 09:45:00,69.4,66.0,29.86,SSE,165,3.0,5.0,89,0.00,,,0.00,WeatherCatV1.20B785,2013-10-06 13:45:00,
2013-10-06 09:47:00,69.6,65.9,29.86,SSE,150,3.0,5.0,88,0.00,,,0.00,WeatherCatV1.20B785,2013-10-06 13:47:00,
2013-10-06 09:50:00,69.9,66.5,29.85,SSE,159,3.0,3.0,89,0.00,,,0.00,WeatherCatV1.20B785,2013-10-06 13:50:00,
2013-10-06 09:52:00,70.1,66.7,29.85,South,173,4.0,5.0,89,0.00,,,0.00,WeatherCatV1.20B785,2013-10-06 13:52:00,
2013-10-06 09:55:00,70.3,66.9,29.85,SSE,162,3.0,4.0,89,0.00,,,0.00,WeatherCatV1.20B785,2013-10-06 13:55:00,
2013-10-06 09:57:00,70.5,66.8,29.85,SSW,194,3.0,5.0,88,0.00,,,0.00,WeatherCatV1.20B785,2013-10-06 13:57:00,
2013-10-06 10:00:00,70.5,66.8,29.85,SSE,159,3.0,5.0,88,0.00,,,0.00,WeatherCatV1.20B785,2013-10-06 14:00:00,
2013-10-06 10:02:00,70.6,66.9,29.85,SSW,194,4.0,6.0,88,0.00,,,0.00,WeatherCatV1.20B785,2013-10-06 14:02:00,
2013-10-06 10:05:00,70.7,67.0,29.85,SSE,165,4.0,5.0,88,0.00,,,0.00,WeatherCatV1.20B785,2013-10-06 14:05:00,
2013-10-06 10:07:00,70.7,67.0,29.85,SSE,162,4.0,5.0,88,0.00,,,0.00,WeatherCatV1.20B785,2013-10-06 14:07:00,
2013-10-06 10:10:00,70.9,67.2,29.84,SSE,164,4.0,6.0,88,0.00,,,0.00,WeatherCatV1.20B785,2013-10-06 14:10:00,
2013-10-06 10:12:00,71.1,67.4,29.84,SW,218,5.0,5.0,88,0.00,,,0.00,WeatherCatV1.20B785,2013-10-06 14:12:00,
2013-10-06 10:15:00,71.2,67.5,29.85,SSE,167,4.0,7.0,88,0.00,,,0.00,WeatherCatV1.20B785,2013-10-06 14:15:00,
2013-10-06 10:17:00,71.3,67.6,29.85,SSE,162,4.0,7.0,88,0.00,,,0.00,WeatherCatV1.20B785,2013-10-06 14:17:00,
2013-10-06 10:20:00,71.4,67.7,29.85,South,170,4.0,5.0,88,0.00,,,0.00,WeatherCatV1.20B785,2013-10-06 14:20:00,
2013-10-06 10:22:00,71.5,67.8,29.85,SSE,159,4.0,5.0,88,0.00,,,0.00,WeatherCatV1.20B785,2013-10-06 14:22:00,
2013-10-06 10:25:00,71.6,67.9,29.85,SSE,163,4.0,4.0,88,0.00,,,0.00,WeatherCatV1.20B785,2013-10-06 14:25:00,
2013-10-06 10:27:00,71.8,68.0,29.85,SSE,152,1.0,4.0,88,0.00,,,0.00,WeatherCatV1.20B785,2013-10-06 14:27:00,
2013-10-06 10:30:00,72.0,68.2,29.85,SSE,163,3.0,4.0,88,0.00,,,0.00,WeatherCatV1.20B785,2013-10-06 14:30:00,
2013-10-06 10:32:00,72.3,68.2,29.85,South,175,1.0,7.0,87,0.00,,,0.00,WeatherCatV1.20B785,2013-10-06 14:32:00,
2013-10-06 10:35:00,72.5,68.4,29.85,SSE,165,3.0,6.0,87,0.00,,,0.00,WeatherCatV1.20B785,2013-10-06 14:35:00,
2013-10-06 10:37:00,72.7,68.6,29.84,SSE,160,6.0,6.0,87,0.00,,,0.00,WeatherCatV1.20B785,2013-10-06 14:37:00,
2013-10-06 10:40:00,72.8,68.7,29.84,SSE,160,4.0,7.0,87,0.00,,,0.00,WeatherCatV1.20B785,2013-10-06 14:40:00,
2013-10-06 10:42:00,72.9,68.8,29.84,SSW,200,3.0,6.0,87,0.00,,,0.00,WeatherCatV1.20B785,2013-10-06 14:42:00,
2013-10-06 10:45:00,73.1,69.0,29.84,SSE,166,5.0,6.0,87,0.00,,,0.00,WeatherCatV1.20B785,2013-10-06 14:45:00,
2013-10-06 10:47:00,73.3,69.2,29.84,SSE,155,4.0,6.0,87,0.00,,,0.00,WeatherCatV1.20B785,2013-10-06 14:47:00,
2013-10-06 10:50:00,73.5,69.0,29.84,SSE,164,4.0,8.0,86,0.00,,,0.00,WeatherCatV1.20B785,2013-10-06 14:50:00,
2013-10-06 10:52:00,73.7,69.2,29.84,SSE,167,4.0,4.0,86,0.00,,,0.00,WeatherCatV1.20B785,2013-10-06 14:52:00,
2013-10-06 10:55:00,73.9,69.4,29.84,SSE,161,4.0,5.0,86,0.00,,,0.00,WeatherCatV1.20B785,2013-10-06 14:55:00,
2013-10-06 10:57:00,74.1,69.6,29.84,SSE,158,3.0,5.0,86,0.00,,,0.00,WeatherCatV1.20B785,2013-10-06 14:57:00,
2013-10-06 11:00:00,74.3,69.8,29.84,SSE,160,3.0,4.0,86,0.00,,,0.00,WeatherCatV1.20B785,2013-10-06 15:00:00,
2013-10-06 11:02:00,74.6,69.8,29.84,SSE,148,4.0,7.0,85,0.00,,,0.00,WeatherCatV1.20B785,2013-10-06 15:02:00,
2013-10-06 11:05:00,74.7,69.2,29.83,South,175,4.0,12.0,83,0.00,,,0.00,WeatherCatV1.20B785,2013-10-06 15:05:00,
2013-10-06 11:07:00,74.8,69.3,29.84,SSE,147,4.0,6.0,83,0.00,,,0.00,WeatherCatV1.20B785,2013-10-06 15:07:00,
2013-10-06 11:10:00,74.9,69.4,29.83,South,174,5.0,7.0,83,0.00,,,0.00,WeatherCatV1.20B785,2013-10-06 15:10:00,
2013-10-06 11:12:00,75.1,69.2,29.84,SSW,194,5.0,12.0,82,0.00,,,0.00,WeatherCatV1.20B785,2013-10-06 15:12:00,
2013-10-06 11:15:00,75.2,69.3,29.84,South,183,6.0,7.0,82,0.00,,,0.00,WeatherCatV1.20B785,2013-10-06 15:15:00,
2013-10-06 11:17:00,75.3,69.4,29.83,South,173,5.0,5.0,82,0.00,,,0.00,WeatherCatV1.20B785,2013-10-06 15:17:00,
2013-10-06 11:20:00,75.5,69.2,29.83,South,180,6.0,11.0,81,0.00,,,0.00,WeatherCatV1.20B785,2013-10-06 15:20:00,
2013-10-06 11:22:00,75.6,69.3,29.83,SW,233,9.0,9.0,81,0.00,,,0.00,WeatherCatV1.20B785,2013-10-06 15:22:00,
2013-10-06 11:25:00,75.8,69.5,29.83,South,182,5.0,5.0,81,0.00,,,0.00,WeatherCatV1.20B785,2013-10-06 15:25:00,
2013-10-06 11:27:00,76.1,69.5,29.83,SSE,153,5.0,10.0,80,0.00,,,0.00,WeatherCatV1.20B785,2013-10-06 15:27:00,
2013-10-06 11:30:00,76.3,69.3,29.83,South,185,5.0,11.0,79,0.00,,,0.00,WeatherCatV1.20B785,2013-10-06 15:30:00,
2013-10-06 11:32:00,76.3,69.3,29.83,SSW,201,5.0,14.0,79,0.00,,,0.00,WeatherCatV1.20B785,2013-10-06 15:32:00,
2013-10-06 11:35:00,76.5,69.5,29.83,SSW,198,5.0,7.0,79,0.00,,,0.00,WeatherCatV1.20B785,2013-10-06 15:35:00,
2013-10-06 11:37:00,76.6,69.6,29.83,SSW,195,5.0,11.0,79,0.00,,,0.00,WeatherCatV1.20B785,2013-10-06 15:37:00,
2013-10-06 11:40:00,76.7,69.7,29.83,South,187,5.0,8.0,79,0.00,,,0.00,WeatherCatV1.20B785,2013-10-06 15:40:00,
2013-10-06 11:42:00,76.7,68.9,29.83,South,182,5.0,12.0,77,0.00,,,0.00,WeatherCatV1.20B785,2013-10-06 15:42:00,
2013-10-06 11:45:00,76.8,69.4,29.83,SSW,209,5.0,8.0,78,0.00,,,0.00,WeatherCatV1.20B785,2013-10-06 15:45:00,
2013-10-06 11:47:00,76.8,69.4,29.83,South,181,4.0,5.0,78,0.00,,,0.00,WeatherCatV1.20B785,2013-10-06 15:47:00,
2013-10-06 11:50:00,77.0,69.6,29.83,SSW,208,4.0,10.0,78,0.00,,,0.00,WeatherCatV1.20B785,2013-10-06 15:50:00,
2013-10-06 11:52:00,77.1,69.7,29.83,West,259,2.0,5.0,78,0.00,,,0.00,WeatherCatV1.20B785,2013-10-06 15:52:00,
2013-10-06 11:55:00,77.3,69.9,29.83,SSW,198,4.0,8.0,78,0.00,,,0.00,WeatherCatV1.20B785,2013-10-06 15:55:00,
2013-10-06 11:57:00,77.3,68.7,29.83,SSW,194,7.0,10.0,75,0.00,,,0.00,WeatherCatV1.20B785,2013-10-06 15:57:00,
2013-10-06 12:00:00,77.3,69.1,29.83,SSW,211,4.0,13.0,76,0.00,,,0.00,WeatherCatV1.20B785,2013-10-06 16:00:00,
2013-10-06 12:02:00,77.3,69.1,29.83,SSW,210,14.0,14.0,76,0.00,,,0.00,WeatherCatV1.20B785,2013-10-06 16:02:00,
2013-10-06 12:05:00,77.2,68.7,29.83,SSW,201,5.0,6.0,75,0.00,,,0.00,WeatherCatV1.20B785,2013-10-06 16:05:00,
2013-10-06 12:07:00,77.4,69.2,29.83,WNW,288,2.0,6.0,76,0.00,,,0.00,WeatherCatV1.20B785,2013-10-06 16:07:00,
2013-10-06 12:10:00,77.5,68.9,29.83,SSW,196,4.0,7.0,75,0.00,,,0.00,WeatherCatV1.20B785,2013-10-06 16:10:00,
2013-10-06 12:12:00,77.5,68.5,29.83,South,169,7.0,10.0,74,0.00,,,0.00,WeatherCatV1.20B785,2013-10-06 16:12:00,
2013-10-06 12:15:00,77.4,68.1,29.82,SSW,193,5.0,16.0,73,0.00,,,0.00,WeatherCatV1.20B785,2013-10-06 16:15:00,
2013-10-06 12:17:00,77.4,68.4,29.82,SSE,149,3.0,4.0,74,0.00,,,0.00,WeatherCatV1.20B785,2013-10-06 16:17:00,
2013-10-06 12:20:00,77.4,68.8,29.82,South,187,5.0,7.0,75,0.00,,,0.00,WeatherCatV1.20B785,2013-10-06 16:20:00,
2013-10-06 12:22:00,77.3,67.9,29.82,SW,214,8.0,12.0,73,0.00,,,0.00,WeatherCatV1.20B785,2013-10-06 16:22:00,
2013-10-06 12:25:00,77.3,68.3,29.82,South,180,6.0,12.0,74,0.00,,,0.00,WeatherCatV1.20B785,2013-10-06 16:25:00,
2013-10-06 12:27:00,77.3,67.9,29.82,SSW,193,4.0,14.0,73,0.00,,,0.00,WeatherCatV1.20B785,2013-10-06 16:27:00,
2013-10-06 12:30:00,77.3,68.3,29.82,South,184,7.0,7.0,74,0.00,,,0.00,WeatherCatV1.20B785,2013-10-06 16:30:00,
2013-10-06 12:32:00,77.3,67.9,29.82,South,170,6.0,11.0,73,0.00,,,0.00,WeatherCatV1.20B785,2013-10-06 16:32:00,
2013-10-06 12:35:00,77.3,67.9,29.82,South,186,6.0,8.0,73,0.00,,,0.00,WeatherCatV1.20B785,2013-10-06 16:35:00,
2013-10-06 12:37:00,77.3,67.9,29.82,SSE,157,3.0,11.0,73,0.00,,,0.00,WeatherCatV1.20B785,2013-10-06 16:37:00,
2013-10-06 12:40:00,77.3,67.6,29.82,SSW,192,5.0,10.0,72,0.00,,,0.00,WeatherCatV1.20B785,2013-10-06 16:40:00,
2013-10-06 12:42:00,77.3,67.6,29.82,SW,224,6.0,11.0,72,0.00,,,0.00,WeatherCatV1.20B785,2013-10-06 16:42:00,
2013-10-06 12:45:00,77.4,67.6,29.82,SSW,200,5.0,10.0,72,0.00,,,0.00,WeatherCatV1.20B785,2013-10-06 16:45:00,
2013-10-06 12:47:00,77.5,67.7,29.82,SSW,210,5.0,7.0,72,0.00,,,0.00,WeatherCatV1.20B785,2013-10-06 16:47:00,
2013-10-06 12:50:00,77.7,68.3,29.82,SSW,210,5.0,5.0,73,0.00,,,0.00,WeatherCatV1.20B785,2013-10-06 16:50:00,
2013-10-06 12:52:00,78.0,68.6,29.82,ESE,105,11.0,11.0,73,0.00,,,0.00,WeatherCatV1.20B785,2013-10-06 16:52:00,
2013-10-06 12:55:00,78.2,68.0,29.81,SSW,196,5.0,17.0,71,0.00,,,0.00,WeatherCatV1.20B785,2013-10-06 16:55:00,
2013-10-06 12:57:00,78.4,68.2,29.81,SSW,197,12.0,15.0,71,0.00,,,0.00,WeatherCatV1.20B785,2013-10-06 16:57:00,
2013-10-06 13:00:00,78.5,67.9,29.81,SSW,192,6.0,11.0,70,0.00,,,0.00,WeatherCatV1.20B785,2013-10-06 17:00:00,
2013-10-06 13:02:00,78.6,68.0,29.81,SSW,194,7.0,10.0,70,0.00,,,0.00,WeatherCatV1.20B785,2013-10-06 17:02:00,
2013-10-06 13:05:00,78.6,68.4,29.81,SSW,206,7.0,10.0,71,0.00,,,0.00,WeatherCatV1.20B785,2013-10-06 17:05:00,
2013-10-06 13:07:00,78.7,67.7,29.81,South,177,10.0,14.0,69,0.00,,,0.00,WeatherCatV1.20B785,2013-10-06 17:07:00,
2013-10-06 13:10:00,78.8,68.6,29.81,SSW,200,6.0,7.0,71,0.00,,,0.00,WeatherCatV1.20B785,2013-10-06 17:10:00,
2013-10-06 13:12:00,79.0,68.8,29.81,SSW,195,12.0,13.0,71,0.00,,,0.00,WeatherCatV1.20B785,2013-10-06 17:12:00,
2013-10-06 13:15:00,79.0,67.5,29.81,SSW,197,7.0,16.0,68,0.00,,,0.00,WeatherCatV1.20B785,2013-10-06 17:15:00,
2013-10-06 13:17:00,78.9,67.8,29.81,SSW,207,4.0,13.0,69,0.00,,,0.00,WeatherCatV1.20B785,2013-10-06 17:17:00,
2013-10-06 13:20:00,78.9,67.4,29.81,South,189,8.0,15.0,68,0.00,,,0.00,WeatherCatV1.20B785,2013-10-06 17:20:00,
2013-10-06 13:22:00,78.9,67.8,29.81,SSW,213,11.0,15.0,69,0.00,,,0.00,WeatherCatV1.20B785,2013-10-06 17:22:00,
2013-10-06 13:25:00,79.1,68.4,29.80,SSW,195,7.0,12.0,70,0.00,,,0.00,WeatherCatV1.20B785,2013-10-06 17:25:00,
2013-10-06 13:27:00,79.2,68.1,29.80,SSE,150,8.0,9.0,69,0.00,,,0.00,WeatherCatV1.20B785,2013-10-06 17:27:00,
2013-10-06 13:30:00,79.3,67.8,29.80,SSW,199,6.0,9.0,68,0.00,,,0.00,WeatherCatV1.20B785,2013-10-06 17:30:00,
2013-10-06 13:32:00,79.1,68.0,29.80,SSW,204,4.0,7.0,69,0.00,,,0.00,WeatherCatV1.20B785,2013-10-06 17:32:00,
2013-10-06 13:35:00,78.8,67.8,29.80,South,189,6.0,8.0,69,0.00,,,0.00,WeatherCatV1.20B785,2013-10-06 17:35:00,
2013-10-06 13:37:00,78.6,68.0,29.80,SSE,163,6.0,15.0,70,0.00,,,0.00,WeatherCatV1.20B785,2013-10-06 17:37:00,
2013-10-06 13:40:00,78.4,68.2,29.80,SSW,195,7.0,7.0,71,0.00,,,0.00,WeatherCatV1.20B785,2013-10-06 17:40:00,
2013-10-06 13:42:00,78.3,68.1,29.80,South,169,4.0,10.0,71,0.00,,,0.00,WeatherCatV1.20B785,2013-10-06 17:42:00,
2013-10-06 13:45:00,78.3,68.1,29.79,SSW,192,5.0,7.0,71,0.00,,,0.00,WeatherCatV1.20B785,2013-10-06 17:45:00,
2013-10-06 13:47:00,78.4,67.8,29.79,SSE,158,5.0,12.0,70,0.00,,,0.00,WeatherCatV1.20B785,2013-10-06 17:47:00,
2013-10-06 13:50:00,78.5,67.9,29.79,South,190,5.0,10.0,70,0.00,,,0.00,WeatherCatV1.20B785,2013-10-06 17:50:00,
2013-10-06 13:52:00,78.8,68.2,29.79,South,184,5.0,12.0,70,0.00,,,0.00,WeatherCatV1.20B785,2013-10-06 17:52:00,
2013-10-06 13:55:00,79.1,68.0,29.79,SSW,198,5.0,14.0,69,0.00,,,0.00,WeatherCatV1.20B785,2013-10-06 17:55:00,
2013-10-06 13:57:00,79.3,68.2,29.79,South,183,5.0,7.0,69,0.00,,,0.00,WeatherCatV1.20B785,2013-10-06 17:57:00,
2013-10-06 14:00:00,79.3,68.2,29.79,SSW,195,5.0,10.0,69,0.00,,,0.00,WeatherCatV1.20B785,2013-10-06 18:00:00,
2013-10-06 14:02:00,78.9,67.8,29.79,SW,226,4.0,7.0,69,0.00,,,0.00,WeatherCatV1.20B785,2013-10-06 18:02:00,
2013-10-06 14:05:00,78.8,67.8,29.79,South,187,6.0,8.0,69,0.00,,,0.00,WeatherCatV1.20B785,2013-10-06 18:05:00,
2013-10-06 14:07:00,78.7,68.1,29.78,SSW,208,1.0,8.0,70,0.00,,,0.00,WeatherCatV1.20B785,2013-10-06 18:07:00,
2013-10-06 14:10:00,78.6,68.0,29.78,South,186,6.0,6.0,70,0.00,,,0.00,WeatherCatV1.20B785,2013-10-06 18:10:00,
2013-10-06 14:12:00,78.6,68.4,29.78,West,276,1.0,5.0,71,0.00,,,0.00,WeatherCatV1.20B785,2013-10-06 18:12:00,
2013-10-06 14:15:00,78.6,68.4,29.78,SSW,203,3.0,3.0,71,0.00,,,0.00,WeatherCatV1.20B785,2013-10-06 18:15:00,
2013-10-06 14:17:00,78.8,68.6,29.78,SW,224,3.0,7.0,71,0.00,,,0.00,WeatherCatV1.20B785,2013-10-06 18:17:00,
2013-10-06 14:20:00,78.8,68.2,29.78,SSW,203,3.0,5.0,70,0.00,,,0.00,WeatherCatV1.20B785,2013-10-06 18:20:00,
2013-10-06 14:22:00,78.9,68.3,29.78,SW,217,3.0,5.0,70,0.00,,,0.00,WeatherCatV1.20B785,2013-10-06 18:22:00,
2013-10-06 14:25:00,79.0,67.9,29.78,SSW,198,3.0,12.0,69,0.00,,,0.00,WeatherCatV1.20B785,2013-10-06 18:25:00,
2013-10-06 14:27:00,79.2,68.6,29.78,South,188,2.0,8.0,70,0.00,,,0.00,WeatherCatV1.20B785,2013-10-06 18:27:00,
2013-10-06 14:30:00,79.3,68.2,29.78,SSW,196,4.0,5.0,69,0.00,,,0.00,WeatherCatV1.20B785,2013-10-06 18:30:00,
2013-10-06 14:32:00,79.3,68.2,29.77,SSE,162,4.0,7.0,69,0.00,,,0.00,WeatherCatV1.20B785,2013-10-06 18:32:00,
2013-10-06 14:35:00,79.2,68.1,29.77,SSW,200,4.0,6.0,69,0.00,,,0.00,WeatherCatV1.20B785,2013-10-06 18:35:00,
2013-10-06 14:37:00,79.1,68.0,29.77,SW,217,2.0,6.0,69,0.00,,,0.00,WeatherCatV1.20B785,2013-10-06 18:37:00,
2013-10-06 14:40:00,79.1,67.6,29.77,SSW,201,3.0,6.0,68,0.00,,,0.00,WeatherCatV1.20B785,2013-10-06 18:40:00,
2013-10-06 14:42:00,79.2,67.7,29.77,South,188,9.0,11.0,68,0.00,,,0.00,WeatherCatV1.20B785,2013-10-06 18:42:00,
2013-10-06 14:45:00,79.2,67.7,29.77,South,191,5.0,16.0,68,0.00,,,0.00,WeatherCatV1.20B785,2013-10-06 18:45:00,
2013-10-06 14:47:00,79.3,67.8,29.77,SW,235,3.0,12.0,68,0.00,,,0.00,WeatherCatV1.20B785,2013-10-06 18:47:00,
2013-10-06 14:50:00,79.4,67.9,29.77,SSW,202,7.0,8.0,68,0.00,,,0.00,WeatherCatV1.20B785,2013-10-06 18:50:00,
2013-10-06 14:52:00,79.7,68.2,29.77,SSE,155,7.0,7.0,68,0.00,,,0.00,WeatherCatV1.20B785,2013-10-06 18:52:00,
2013-10-06 14:55:00,79.7,67.8,29.77,South,185,6.0,13.0,67,0.00,,,0.00,WeatherCatV1.20B785,2013-10-06 18:55:00,
2013-10-06 14:57:00,79.6,68.1,29.77,South,183,3.0,8.0,68,0.00,,,0.00,WeatherCatV1.20B785,2013-10-06 18:57:00,
2013-10-06 15:00:00,79.6,68.5,29.77,SSW,192,5.0,10.0,69,0.00,,,0.00,WeatherCatV1.20B785,2013-10-06 19:00:00,
2013-10-06 15:02:00,79.5,68.0,29.77,South,185,6.0,12.0,68,0.00,,,0.00,WeatherCatV1.20B785,2013-10-06 19:02:00,
2013-10-06 15:05:00,79.3,67.8,29.76,SSW,200,6.0,7.0,68,0.00,,,0.00,WeatherCatV1.20B785,2013-10-06 19:05:00,
2013-10-06 15:07:00,79.5,67.6,29.76,South,187,1.0,14.0,67,0.00,,,0.00,WeatherCatV1.20B785,2013-10-06 19:07:00,
2013-10-06 15:10:00,79.8,68.3,29.76,South,187,6.0,11.0,68,0.00,,,0.00,WeatherCatV1.20B785,2013-10-06 19:10:00,
2013-10-06 15:12:00,79.8,67.8,29.76,SSE,149,7.0,13.0,67,0.00,,,0.00,WeatherCatV1.20B785,2013-10-06 19:12:00,
2013-10-06 15:15:00,79.7,68.2,29.76,SSW,197,6.0,8.0,68,0.00,,,0.00,WeatherCatV1.20B785,2013-10-06 19:15:00,
2013-10-06 15:17:00,79.8,67.8,29.76,SW,217,6.0,7.0,67,0.00,,,0.00,WeatherCatV1.20B785,2013-10-06 19:17:00,
2013-10-06 15:20:00,80.0,68.0,29.76,South,178,5.0,7.0,67,0.00,,,0.00,WeatherCatV1.20B785,2013-10-06 19:20:00,
2013-10-06 15:22:00,80.0,67.6,29.76,SW,233,3.0,6.0,66,0.00,,,0.00,WeatherCatV1.20B785,2013-10-06 19:22:00,
2013-10-06 15:25:00,80.0,67.6,29.76,SSW,195,3.0,7.0,66,0.00,,,0.00,WeatherCatV1.20B785,2013-10-06 19:25:00,
2013-10-06 15:27:00,79.9,67.5,29.76,SSW,204,9.0,11.0,66,0.00,,,0.00,WeatherCatV1.20B785,2013-10-06 19:27:00,
2013-10-06 15:30:00,79.8,67.4,29.75,SSW,198,4.0,8.0,66,0.00,,,0.00,WeatherCatV1.20B785,2013-10-06 19:30:00,
2013-10-06 15:32:00,79.8,67.4,29.75,SW,231,3.0,5.0,66,0.00,,,0.00,WeatherCatV1.20B785,2013-10-06 19:32:00,
2013-10-06 15:35:00,79.8,67.4,29.75,SSW,209,4.0,6.0,66,0.00,,,0.00,WeatherCatV1.20B785,2013-10-06 19:35:00,
2013-10-06 15:37:00,79.7,67.3,29.75,SW,215,3.0,7.0,66,0.00,,,0.00,WeatherCatV1.20B785,2013-10-06 19:37:00,
2013-10-06 15:40:00,79.8,67.8,29.75,SSW,204,4.0,8.0,67,0.00,,,0.00,WeatherCatV1.20B785,2013-10-06 19:40:00,
2013-10-06 15:42:00,79.9,67.1,29.75,SW,217,9.0,12.0,65,0.00,,,0.00,WeatherCatV1.20B785,2013-10-06 19:42:00,
2013-10-06 15:45:00,79.9,66.6,29.75,SSW,202,5.0,10.0,64,0.00,,,0.00,WeatherCatV1.20B785,2013-10-06 19:45:00,
2013-10-06 15:47:00,79.8,67.0,29.75,SW,235,2.0,8.0,65,0.00,,,0.00,WeatherCatV1.20B785,2013-10-06 19:47:00,
2013-10-06 15:50:00,79.7,66.9,29.75,SSW,204,5.0,8.0,65,0.00,,,0.00,WeatherCatV1.20B785,2013-10-06 19:50:00,
2013-10-06 15:52:00,79.7,67.3,29.75,South,190,2.0,6.0,66,0.00,,,0.00,WeatherCatV1.20B785,2013-10-06 19:52:00,
2013-10-06 15:55:00,79.5,67.1,29.75,SSW,198,4.0,6.0,66,0.00,,,0.00,WeatherCatV1.20B785,2013-10-06 19:55:00,
2013-10-06 15:57:00,79.4,67.0,29.75,South,177,4.0,8.0,66,0.00,,,0.00,WeatherCatV1.20B785,2013-10-06 19:57:00,
2013-10-06 16:00:00,79.4,67.0,29.75,SSW,192,4.0,6.0,66,0.00,,,0.00,WeatherCatV1.20B785,2013-10-06 20:00:00,
2013-10-06 16:02:00,79.6,67.2,29.75,SSW,211,12.0,12.0,66,0.00,,,0.00,WeatherCatV1.20B785,2013-10-06 20:02:00,
2013-10-06 16:05:00,79.7,67.3,29.75,SSW,197,5.0,9.0,66,0.00,,,0.00,WeatherCatV1.20B785,2013-10-06 20:05:00,
2013-10-06 16:07:00,79.9,67.5,29.75,SSE,160,5.0,8.0,66,0.00,,,0.00,WeatherCatV1.20B785,2013-10-06 20:07:00,
2013-10-06 16:10:00,80.0,67.6,29.75,South,184,5.0,5.0,66,0.00,,,0.00,WeatherCatV1.20B785,2013-10-06 20:10:00,
2013-10-06 16:12:00,80.2,67.3,29.75,SSE,151,5.0,7.0,65,0.00,,,0.00,WeatherCatV1.20B785,2013-10-06 20:12:00,
2013-10-06 16:15:00,80.3,67.4,29.74,South,174,4.0,6.0,65,0.00,,,0.00,WeatherCatV1.20B785,2013-10-06 20:15:00,
2013-10-06 16:17:00,80.2,66.9,29.74,SSW,204,7.0,7.0,64,0.00,,,0.00,WeatherCatV1.20B785,2013-10-06 20:17:00,
2013-10-06 16:20:00,79.9,66.6,29.74,South,182,5.0,8.0,64,0.00,,,0.00,WeatherCatV1.20B785,2013-10-06 20:20:00,
2013-10-06 16:22:00,79.9,67.5,29.74,SE,145,1.0,4.0,66,0.00,,,0.00,WeatherCatV1.20B785,2013-10-06 20:22:00,
2013-10-06 16:25:00,80.2,67.3,29.74,South,182,4.0,7.0,65,0.00,,,0.00,WeatherCatV1.20B785,2013-10-06 20:25:00,
2013-10-06 16:27:00,80.3,67.0,29.74,SSE,163,4.0,9.0,64,0.00,,,0.00,WeatherCatV1.20B785,2013-10-06 20:27:00,
2013-10-06 16:30:00,80.3,66.1,29.74,South,177,4.0,10.0,62,0.00,,,0.00,WeatherCatV1.20B785,2013-10-06 20:30:00,
2013-10-06 16:32:00,80.3,66.5,29.74,SSW,210,1.0,14.0,63,0.00,,,0.00,WeatherCatV1.20B785,2013-10-06 20:32:00,
2013-10-06 16:35:00,80.3,65.6,29.74,South,186,5.0,10.0,61,0.00,,,0.00,WeatherCatV1.20B785,2013-10-06 20:35:00,
2013-10-06 16:37:00,80.4,66.6,29.74,SSE,166,3.0,4.0,63,0.00,,,0.00,WeatherCatV1.20B785,2013-10-06 20:37:00,
2013-10-06 16:40:00,80.4,66.6,29.73,South,179,4.0,5.0,63,0.00,,,0.00,WeatherCatV1.20B785,2013-10-06 20:40:00,
2013-10-06 16:42:00,80.3,66.5,29.74,SE,145,5.0,12.0,63,0.00,,,0.00,WeatherCatV1.20B785,2013-10-06 20:42:00,
2013-10-06 16:45:00,80.0,66.2,29.73,South,179,4.0,8.0,63,0.00,,,0.00,WeatherCatV1.20B785,2013-10-06 20:45:00,
2013-10-06 16:47:00,79.9,66.6,29.73,SSE,149,6.0,9.0,64,0.00,,,0.00,WeatherCatV1.20B785,2013-10-06 20:47:00,
2013-10-06 16:50:00,79.9,66.6,29.73,South,187,5.0,6.0,64,0.00,,,0.00,WeatherCatV1.20B785,2013-10-06 20:50:00,
2013-10-06 16:52:00,80.0,66.7,29.73,SSW,205,2.0,4.0,64,0.00,,,0.00,WeatherCatV1.20B785,2013-10-06 20:52:00,
2013-10-06 16:55:00,80.1,66.8,29.73,SSW,194,4.0,8.0,64,0.00,,,0.00,WeatherCatV1.20B785,2013-10-06 20:55:00,
2013-10-06 16:57:00,80.2,66.9,29.73,SSW,210,2.0,5.0,64,0.00,,,0.00,WeatherCatV1.20B785,2013-10-06 20:57:00,
2013-10-06 17:00:00,80.1,66.3,29.73,South,175,4.0,6.0,63,0.00,,,0.00,WeatherCatV1.20B785,2013-10-06 21:00:00,
2013-10-06 17:02:00,80.0,66.7,29.73,SSE,148,2.0,6.0,64,0.00,,,0.00,WeatherCatV1.20B785,2013-10-06 21:02:00,
2013-10-06 17:05:00,80.0,66.7,29.73,South,173,4.0,6.0,64,0.00,,,0.00,WeatherCatV1.20B785,2013-10-06 21:05:00,
2013-10-06 17:07:00,79.9,66.2,29.73,SSW,197,2.0,7.0,63,0.00,,,0.00,WeatherCatV1.20B785,2013-10-06 21:07:00,
2013-10-06 17:10:00,79.8,66.1,29.73,South,175,3.0,4.0,63,0.00,,,0.00,WeatherCatV1.20B785,2013-10-06 21:10:00,
2013-10-06 17:12:00,79.7,66.0,29.73,SSW,197,4.0,4.0,63,0.00,,,0.00,WeatherCatV1.20B785,2013-10-06 21:12:00,
2013-10-06 17:15:00,79.7,66.4,29.73,South,187,3.0,7.0,64,0.00,,,0.00,WeatherCatV1.20B785,2013-10-06 21:15:00,
2013-10-06 17:17:00,79.5,65.8,29.73,South,188,5.0,6.0,63,0.00,,,0.00,WeatherCatV1.20B785,2013-10-06 21:17:00,
2013-10-06 17:20:00,79.3,65.6,29.73,South,174,3.0,4.0,63,0.00,,,0.00,WeatherCatV1.20B785,2013-10-06 21:20:00,
2013-10-06 17:22:00,79.3,65.6,29.72,South,187,4.0,11.0,63,0.00,,,0.00,WeatherCatV1.20B785,2013-10-06 21:22:00,
2013-10-06 17:25:00,79.3,65.6,29.72,South,182,4.0,7.0,63,0.00,,,0.00,WeatherCatV1.20B785,2013-10-06 21:25:00,
2013-10-06 17:27:00,79.2,65.0,29.72,South,177,2.0,5.0,62,0.00,,,0.00,WeatherCatV1.20B785,2013-10-06 21:27:00,
2013-10-06 17:30:00,79.2,65.0,29.72,South,177,4.0,7.0,62,0.00,,,0.00,WeatherCatV1.20B785,2013-10-06 21:30:00,
2013-10-06 17:32:00,79.2,65.5,29.72,SSE,158,3.0,5.0,63,0.00,,,0.00,WeatherCatV1.20B785,2013-10-06 21:32:00,
2013-10-06 17:35:00,79.1,65.4,29.72,South,169,3.0,3.0,63,0.00,,,0.00,WeatherCatV1.20B785,2013-10-06 21:35:00,
2013-10-06 17:37:00,79.1,65.8,29.72,SSW,192,3.0,8.0,64,0.00,,,0.00,WeatherCatV1.20B785,2013-10-06 21:37:00,
2013-10-06 17:40:00,78.9,65.2,29.72,South,177,3.0,6.0,63,0.00,,,0.00,WeatherCatV1.20B785,2013-10-06 21:40:00,
2013-10-06 17:42:00,78.8,65.6,29.72,SW,217,6.0,9.0,64,0.00,,,0.00,WeatherCatV1.20B785,2013-10-06 21:42:00,
2013-10-06 17:45:00,78.6,65.4,29.72,South,185,4.0,4.0,64,0.00,,,0.00,WeatherCatV1.20B785,2013-10-06 21:45:00,
2013-10-06 17:47:00,78.3,65.5,29.72,SSE,150,1.0,4.0,65,0.00,,,0.00,WeatherCatV1.20B785,2013-10-06 21:47:00,
2013-10-06 17:50:00,78.1,65.8,29.72,South,170,3.0,3.0,66,0.00,,,0.00,WeatherCatV1.20B785,2013-10-06 21:50:00,
2013-10-06 17:52:00,77.7,65.4,29.72,SSE,161,3.0,3.0,66,0.00,,,0.00,WeatherCatV1.20B785,2013-10-06 21:52:00,
2013-10-06 17:55:00,77.4,65.6,29.72,SSE,164,2.0,3.0,67,0.00,,,0.00,WeatherCatV1.20B785,2013-10-06 21:55:00,
2013-10-06 17:57:00,77.2,65.4,29.72,SSW,195,3.0,3.0,67,0.00,,,0.00,WeatherCatV1.20B785,2013-10-06 21:57:00,
2013-10-06 18:00:00,77.0,65.2,29.72,South,173,2.0,2.0,67,0.00,,,0.00,WeatherCatV1.20B785,2013-10-06 22:00:00,
2013-10-06 18:02:00,76.9,65.5,29.72,SSE,160,2.0,3.0,68,0.00,,,0.00,WeatherCatV1.20B785,2013-10-06 22:02:00,
2013-10-06 18:05:00,76.7,64.9,29.72,SSE,165,2.0,4.0,67,0.00,,,0.00,WeatherCatV1.20B785,2013-10-06 22:05:00,
2013-10-06 18:07:00,76.6,65.2,29.72,South,187,2.0,5.0,68,0.00,,,0.00,WeatherCatV1.20B785,2013-10-06 22:07:00,
2013-10-06 18:10:00,76.3,64.9,29.72,South,176,2.0,2.0,68,0.00,,,0.00,WeatherCatV1.20B785,2013-10-06 22:10:00,
2013-10-06 18:12:00,76.2,64.8,29.72,South,172,3.0,3.0,68,0.00,,,0.00,WeatherCatV1.20B785,2013-10-06 22:12:00,
2013-10-06 18:15:00,76.0,65.1,29.72,South,176,2.0,2.0,69,0.00,,,0.00,WeatherCatV1.20B785,2013-10-06 22:15:00,
2013-10-06 18:17:00,75.9,65.0,29.72,SSE,153,2.0,2.0,69,0.00,,,0.00,WeatherCatV1.20B785,2013-10-06 22:17:00,
2013-10-06 18:20:00,75.7,64.8,29.72,SSE,159,1.0,2.0,69,0.00,,,0.00,WeatherCatV1.20B785,2013-10-06 22:20:00,
2013-10-06 18:22:00,75.5,64.6,29.72,SSE,155,1.0,2.0,69,0.00,,,0.00,WeatherCatV1.20B785,2013-10-06 22:22:00,
2013-10-06 18:25:00,75.3,64.8,29.72,SSE,157,1.0,2.0,70,0.00,,,0.00,WeatherCatV1.20B785,2013-10-06 22:25:00,
2013-10-06 18:27:00,75.0,64.9,29.71,SSE,152,0.0,2.0,71,0.00,,,0.00,WeatherCatV1.20B785,2013-10-06 22:27:00,
2013-10-06 18:30:00,74.5,64.9,29.71,South,169,0.0,1.0,72,0.00,,,0.00,WeatherCatV1.20B785,2013-10-06 22:30:00,
2013-10-06 18:32:00,74.3,64.7,29.71,SSW,203,0.0,2.0,72,0.00,,,0.00,WeatherCatV1.20B785,2013-10-06 22:32:00,
2013-10-06 18:35:00,74.0,64.8,29.71,South,176,1.0,0.0,73,0.00,,,0.00,WeatherCatV1.20B785,2013-10-06 22:35:00,
2013-10-06 18:37:00,73.8,65.0,29.71,South,186,0.0,1.0,74,0.00,,,0.00,WeatherCatV1.20B785,2013-10-06 22:37:00,
2013-10-06 18:40:00,73.5,65.1,29.71,South,177,0.0,0.0,75,0.00,,,0.00,WeatherCatV1.20B785,2013-10-06 22:40:00,
2013-10-06 18:42:00,73.2,65.2,29.71,SSW,193,0.0,0.0,76,0.00,,,0.00,WeatherCatV1.20B785,2013-10-06 22:42:00,
2013-10-06 18:45:00,72.9,64.9,29.71,South,190,0.0,1.0,76,0.00,,,0.00,WeatherCatV1.20B785,2013-10-06 22:45:00,
2013-10-06 18:47:00,72.6,65.0,29.71,SSW,210,0.0,0.0,77,0.00,,,0.00,WeatherCatV1.20B785,2013-10-06 22:47:00,
2013-10-06 18:50:00,72.3,65.1,29.71,SSW,205,0.0,0.0,78,0.00,,,0.00,WeatherCatV1.20B785,2013-10-06 22:50:00,
2013-10-06 18:52:00,71.8,64.6,29.71,SSW,210,0.0,0.0,78,0.00,,,0.00,WeatherCatV1.20B785,2013-10-06 22:52:00,
2013-10-06 18:55:00,71.5,64.6,29.71,SSW,209,0.0,0.0,79,0.00,,,0.00,WeatherCatV1.20B785,2013-10-06 22:55:00,
2013-10-06 18:57:00,71.1,64.6,29.71,SSW,208,0.0,0.0,80,0.00,,,0.00,WeatherCatV1.20B785,2013-10-06 22:57:00,
2013-10-06 19:00:00,70.7,64.2,29.71,SSW,212,0.0,1.0,80,0.00,,,0.00,WeatherCatV1.20B785,2013-10-06 23:00:00,
2013-10-06 19:02:00,70.4,64.3,29.71,SW,217,0.0,0.0,81,0.00,,,0.00,WeatherCatV1.20B785,2013-10-06 23:02:00,
2013-10-06 19:05:00,70.1,64.3,29.71,SW,216,0.0,0.0,82,0.00,,,0.00,WeatherCatV1.20B785,2013-10-06 23:05:00,
2013-10-06 19:07:00,69.8,64.1,29.71,SW,217,0.0,0.0,82,0.00,,,0.00,WeatherCatV1.20B785,2013-10-06 23:07:00,
2013-10-06 19:10:00,69.6,64.2,29.71,SW,217,0.0,0.0,83,0.00,,,0.00,WeatherCatV1.20B785,2013-10-06 23:10:00,
2013-10-06 19:12:00,69.3,63.9,29.71,SW,217,0.0,0.0,83,0.00,,,0.00,WeatherCatV1.20B785,2013-10-06 23:12:00,
2013-10-06 19:15:00,69.2,64.2,29.71,SW,217,0.0,0.0,84,0.00,,,0.00,WeatherCatV1.20B785,2013-10-06 23:15:00,
2013-10-06 19:17:00,68.9,63.9,29.71,SW,217,0.0,0.0,84,0.00,,,0.00,WeatherCatV1.20B785,2013-10-06 23:17:00,
2013-10-06 19:20:00,68.8,63.8,29.71,SW,217,0.0,0.0,84,0.00,,,0.00,WeatherCatV1.20B785,2013-10-06 23:20:00,
2013-10-06 19:22:00,68.6,63.9,29.71,SW,217,0.0,1.0,85,0.00,,,0.00,WeatherCatV1.20B785,2013-10-06 23:22:00,
2013-10-06 19:25:00,68.4,63.7,29.70,SW,215,0.0,1.0,85,0.00,,,0.00,WeatherCatV1.20B785,2013-10-06 23:25:00,
2013-10-06 19:27:00,68.3,63.9,29.70,SSW,212,1.0,1.0,86,0.00,,,0.00,WeatherCatV1.20B785,2013-10-06 23:27:00,
2013-10-06 19:30:00,68.3,64.0,29.70,SSW,213,0.0,1.0,86,0.00,,,0.00,WeatherCatV1.20B785,2013-10-06 23:30:00,
2013-10-06 19:32:00,68.3,63.9,29.70,SW,219,0.0,1.0,86,0.00,,,0.00,WeatherCatV1.20B785,2013-10-06 23:32:00,
2013-10-06 19:35:00,68.4,64.0,29.70,SW,217,0.0,0.0,86,0.00,,,0.00,WeatherCatV1.20B785,2013-10-06 23:35:00,
2013-10-06 19:37:00,68.4,64.0,29.70,SW,219,0.0,1.0,86,0.00,,,0.00,WeatherCatV1.20B785,2013-10-06 23:37:00,
2013-10-06 19:40:00,68.3,64.0,29.70,SW,218,0.0,0.0,86,0.00,,,0.00,WeatherCatV1.20B785,2013-10-06 23:40:00,
2013-10-06 19:42:00,68.2,63.8,29.70,SW,218,0.0,1.0,86,0.00,,,0.00,WeatherCatV1.20B785,2013-10-06 23:42:00,
2013-10-06 19:45:00,68.1,63.8,29.70,SW,219,0.0,1.0,86,0.00,,,0.00,WeatherCatV1.20B785,2013-10-06 23:45:00,
2013-10-06 19:47:00,68.1,63.8,29.70,SSW,210,1.0,1.0,86,0.00,,,0.00,WeatherCatV1.20B785,2013-10-06 23:47:00,
2013-10-06 19:50:00,68.3,64.0,29.70,SSW,213,0.0,1.0,86,0.00,,,0.00,WeatherCatV1.20B785,2013-10-06 23:50:00,
2013-10-06 19:52:00,68.3,63.9,29.70,SW,214,0.0,1.0,86,0.00,,,0.00,WeatherCatV1.20B785,2013-10-06 23:52:00,
2013-10-06 19:55:00,68.3,63.6,29.70,SSW,213,0.0,1.0,85,0.00,,,0.00,WeatherCatV1.20B785,2013-10-06 23:55:00,
2013-10-06 19:57:00,68.3,63.9,29.70,SSW,207,0.0,2.0,86,0.00,,,0.00,WeatherCatV1.20B785,2013-10-06 23:57:00,
2013-10-06 20:00:00,68.2,63.8,29.70,SSW,201,0.0,1.0,86,0.00,,,0.00,WeatherCatV1.20B785,2013-10-07 00:00:00,
2013-10-06 20:02:00,68.2,63.8,29.70,SSE,153,1.0,2.0,86,0.00,,,0.00,WeatherCatV1.20B785,2013-10-07 00:02:00,
2013-10-06 20:05:00,68.4,64.0,29.70,South,169,1.0,2.0,86,0.00,,,0.00,WeatherCatV1.20B785,2013-10-07 00:05:00,
2013-10-06 20:07:00,68.4,64.0,29.70,SSE,163,0.0,1.0,86,0.00,,,0.00,WeatherCatV1.20B785,2013-10-07 00:07:00,
2013-10-06 20:10:00,68.4,64.0,29.70,SSE,156,0.0,1.0,86,0.00,,,0.00,WeatherCatV1.20B785,2013-10-07 00:10:00,
2013-10-06 20:12:00,68.5,64.1,29.69,SSE,152,1.0,1.0,86,0.00,,,0.00,WeatherCatV1.20B785,2013-10-07 00:12:00,
2013-10-06 20:15:00,68.5,63.8,29.69,SSE,154,0.0,2.0,85,0.00,,,0.00,WeatherCatV1.20B785,2013-10-07 00:15:00,
2013-10-06 20:17:00,68.6,64.2,29.69,SSE,158,1.0,2.0,86,0.00,,,0.00,WeatherCatV1.20B785,2013-10-07 00:17:00,
2013-10-06 20:20:00,68.7,64.0,29.69,SSE,154,1.0,2.0,85,0.00,,,0.00,WeatherCatV1.20B785,2013-10-07 00:20:00,
2013-10-06 20:22:00,68.8,64.1,29.69,SSE,158,1.0,2.0,85,0.00,,,0.00,WeatherCatV1.20B785,2013-10-07 00:22:00,
2013-10-06 20:25:00,68.7,64.0,29.69,SSE,152,1.0,1.0,85,0.00,,,0.00,WeatherCatV1.20B785,2013-10-07 00:25:00,
2013-10-06 20:27:00,69.0,64.3,29.69,SSE,155,2.0,3.0,85,0.00,,,0.00,WeatherCatV1.20B785,2013-10-07 00:27:00,
2013-10-06 20:30:00,69.2,64.5,29.69,SSE,157,1.0,3.0,85,0.00,,,0.00,WeatherCatV1.20B785,2013-10-07 00:30:00,
2013-10-06 20:32:00,69.4,64.3,29.69,SSE,162,2.0,2.0,84,0.00,,,0.00,WeatherCatV1.20B785,2013-10-07 00:32:00,
2013-10-06 20:35:00,69.7,64.6,29.69,SSE,163,1.0,2.0,84,0.00,,,0.00,WeatherCatV1.20B785,2013-10-07 00:35:00,
2013-10-06 20:37:00,69.9,64.5,29.69,SSE,162,2.0,3.0,83,0.00,,,0.00,WeatherCatV1.20B785,2013-10-07 00:37:00,
2013-10-06 20:40:00,70.2,64.8,29.69,South,172,2.0,3.0,83,0.00,,,0.00,WeatherCatV1.20B785,2013-10-07 00:40:00,
2013-10-06 20:42:00,70.4,64.6,29.69,SSE,148,1.0,2.0,82,0.00,,,0.00,WeatherCatV1.20B785,2013-10-07 00:42:00,
2013-10-06 20:45:00,70.7,64.6,29.69,SSE,160,2.0,2.0,81,0.00,,,0.00,WeatherCatV1.20B785,2013-10-07 00:45:00,
2013-10-06 20:47:00,70.9,64.8,29.69,SE,139,1.0,3.0,81,0.00,,,0.00,WeatherCatV1.20B785,2013-10-07 00:47:00,
2013-10-06 20:50:00,71.1,65.0,29.69,SSE,160,2.0,3.0,81,0.00,,,0.00,WeatherCatV1.20B785,2013-10-07 00:50:00,
2013-10-06 20:52:00,71.1,64.6,29.69,South,169,3.0,3.0,80,0.00,,,0.00,WeatherCatV1.20B785,2013-10-07 00:52:00,
2013-10-06 20:55:00,71.1,64.6,29.69,SSE,161,2.0,3.0,80,0.00,,,0.00,WeatherCatV1.20B785,2013-10-07 00:55:00,
2013-10-06 20:57:00,71.2,64.7,29.69,SSE,150,3.0,5.0,80,0.00,,,0.00,WeatherCatV1.20B785,2013-10-07 00:57:00,
2013-10-06 21:00:00,71.4,64.5,29.69,SSE,161,2.0,4.0,79,0.00,,,0.00,WeatherCatV1.20B785,2013-10-07 01:00:00,
2013-10-06 21:02:00,71.6,64.7,29.69,SSE,153,3.0,3.0,79,0.00,,,0.00,WeatherCatV1.20B785,2013-10-07 01:02:00,
2013-10-06 21:05:00,71.6,64.7,29.69,SSE,160,2.0,3.0,79,0.00,,,0.00,WeatherCatV1.20B785,2013-10-07 01:05:00,
2013-10-06 21:07:00,71.7,64.5,29.69,SSE,163,1.0,3.0,78,0.00,,,0.00,WeatherCatV1.20B785,2013-10-07 01:07:00,
2013-10-06 21:10:00,71.7,64.4,29.69,SSE,161,2.0,3.0,78,0.00,,,0.00,WeatherCatV1.20B785,2013-10-07 01:10:00,
2013-10-06 21:12:00,71.7,64.5,29.69,SSE,159,2.0,2.0,78,0.00,,,0.00,WeatherCatV1.20B785,2013-10-07 01:12:00,
2013-10-06 21:15:00,71.6,64.4,29.69,SSE,167,2.0,2.0,78,0.00,,,0.00,WeatherCatV1.20B785,2013-10-07 01:15:00,
2013-10-06 21:17:00,71.6,64.4,29.69,SSE,162,2.0,3.0,78,0.00,,,0.00,WeatherCatV1.20B785,2013-10-07 01:17:00,
2013-10-06 21:20:00,71.7,64.4,29.69,SSE,162,2.0,2.0,78,0.00,,,0.00,WeatherCatV1.20B785,2013-10-07 01:20:00,
2013-10-06 21:22:00,71.8,64.6,29.68,South,172,2.0,3.0,78,0.00,,,0.00,WeatherCatV1.20B785,2013-10-07 01:22:00,
2013-10-06 21:25:00,71.8,64.6,29.68,SSE,163,2.0,3.0,78,0.00,,,0.00,WeatherCatV1.20B785,2013-10-07 01:25:00,
2013-10-06 21:27:00,71.9,64.3,29.68,SSE,163,2.0,4.0,77,0.00,,,0.00,WeatherCatV1.20B785,2013-10-07 01:27:00,
2013-10-06 21:30:00,72.0,64.4,29.68,SSE,163,2.0,3.0,77,0.00,,,0.00,WeatherCatV1.20B785,2013-10-07 01:30:00,
2013-10-06 21:32:00,72.0,64.0,29.68,SSE,149,2.0,3.0,76,0.00,,,0.00,WeatherCatV1.20B785,2013-10-07 01:32:00,
2013-10-06 21:35:00,72.2,64.6,29.68,SSE,161,2.0,4.0,77,0.00,,,0.00,WeatherCatV1.20B785,2013-10-07 01:35:00,
2013-10-06 21:37:00,72.2,64.2,29.68,SSE,162,2.0,3.0,76,0.00,,,0.00,WeatherCatV1.20B785,2013-10-07 01:37:00,
2013-10-06 21:40:00,72.2,64.2,29.68,SSE,164,2.0,4.0,76,0.00,,,0.00,WeatherCatV1.20B785,2013-10-07 01:40:00,
2013-10-06 21:42:00,72.2,64.2,29.68,South,172,3.0,5.0,76,0.00,,,0.00,WeatherCatV1.20B785,2013-10-07 01:42:00,
2013-10-06 21:45:00,72.2,64.2,29.68,SSE,164,3.0,5.0,76,0.00,,,0.00,WeatherCatV1.20B785,2013-10-07 01:45:00,
2013-10-06 21:47:00,72.2,64.2,29.68,South,175,2.0,4.0,76,0.00,,,0.00,WeatherCatV1.20B785,2013-10-07 01:47:00,
2013-10-06 21:50:00,72.2,64.2,29.68,SSE,166,3.0,4.0,76,0.00,,,0.00,WeatherCatV1.20B785,2013-10-07 01:50:00,
2013-10-06 21:52:00,72.1,63.7,29.68,South,169,3.0,4.0,75,0.00,,,0.00,WeatherCatV1.20B785,2013-10-07 01:52:00,
2013-10-06 21:55:00,71.9,63.5,29.68,SSE,166,3.0,3.0,75,0.00,,,0.00,WeatherCatV1.20B785,2013-10-07 01:55:00,
2013-10-06 21:57:00,72.0,64.0,29.68,SSE,166,2.0,4.0,76,0.00,,,0.00,WeatherCatV1.20B785,2013-10-07 01:57:00,
2013-10-06 22:00:00,72.0,63.6,29.68,SSE,164,2.0,4.0,75,0.00,,,0.00,WeatherCatV1.20B785,2013-10-07 02:00:00,
2013-10-06 22:02:00,71.9,63.9,29.68,SSW,200,1.0,3.0,76,0.00,,,0.00,WeatherCatV1.20B785,2013-10-07 02:02:00,
2013-10-06 22:05:00,71.8,63.4,29.68,SSE,168,2.0,4.0,75,0.00,,,0.00,WeatherCatV1.20B785,2013-10-07 02:05:00,
2013-10-06 22:07:00,71.7,63.7,29.68,SSE,155,2.0,3.0,76,0.00,,,0.00,WeatherCatV1.20B785,2013-10-07 02:07:00,
2013-10-06 22:10:00,71.7,63.7,29.68,SSE,162,2.0,3.0,76,0.00,,,0.00,WeatherCatV1.20B785,2013-10-07 02:10:00,
2013-10-06 22:12:00,71.6,63.6,29.68,SSE,156,2.0,4.0,76,0.00,,,0.00,WeatherCatV1.20B785,2013-10-07 02:12:00,
2013-10-06 22:15:00,71.6,63.6,29.68,SSE,160,2.0,4.0,76,0.00,,,0.00,WeatherCatV1.20B785,2013-10-07 02:15:00,
2013-10-06 22:17:00,71.5,63.5,29.68,South,172,2.0,3.0,76,0.00,,,0.00,WeatherCatV1.20B785,2013-10-07 02:17:00,
2013-10-06 22:20:00,71.5,63.5,29.68,SSE,160,2.0,3.0,76,0.00,,,0.00,WeatherCatV1.20B785,2013-10-07 02:20:00,
2013-10-06 22:22:00,71.5,63.2,29.68,SSE,155,1.0,3.0,75,0.00,,,0.00,WeatherCatV1.20B785,2013-10-07 02:22:00,
2013-10-06 22:25:00,71.5,63.1,29.68,SSE,159,2.0,3.0,75,0.00,,,0.00,WeatherCatV1.20B785,2013-10-07 02:25:00,
2013-10-06 22:27:00,71.6,63.2,29.68,SSE,159,3.0,5.0,75,0.00,,,0.00,WeatherCatV1.20B785,2013-10-07 02:27:00,
2013-10-06 22:30:00,71.5,63.1,29.68,SSE,163,3.0,4.0,75,0.00,,,0.00,WeatherCatV1.20B785,2013-10-07 02:30:00,
2013-10-06 22:32:00,71.5,63.2,29.68,SSE,153,4.0,5.0,75,0.00,,,0.00,WeatherCatV1.20B785,2013-10-07 02:32:00,
2013-10-06 22:35:00,71.6,63.2,29.68,SSE,163,4.0,5.0,75,0.00,,,0.00,WeatherCatV1.20B785,2013-10-07 02:35:00,
2013-10-06 22:37:00,71.7,63.0,29.68,SSW,203,7.0,11.0,74,0.00,,,0.00,WeatherCatV1.20B785,2013-10-07 02:37:00,
2013-10-06 22:40:00,71.6,62.8,29.67,SSE,161,4.0,4.0,74,0.00,,,0.00,WeatherCatV1.20B785,2013-10-07 02:40:00,
2013-10-06 22:42:00,71.6,62.9,29.67,SSE,163,3.0,4.0,74,0.00,,,0.00,WeatherCatV1.20B785,2013-10-07 02:42:00,
2013-10-06 22:45:00,71.6,62.8,29.67,SSE,159,3.0,4.0,74,0.00,,,0.00,WeatherCatV1.20B785,2013-10-07 02:45:00,
2013-10-06 22:47:00,71.6,62.9,29.67,SSE,167,3.0,5.0,74,0.00,,,0.00,WeatherCatV1.20B785,2013-10-07 02:47:00,
2013-10-06 22:50:00,71.6,62.8,29.67,SSE,164,4.0,5.0,74,0.00,,,0.00,WeatherCatV1.20B785,2013-10-07 02:50:00,
2013-10-06 22:52:00,71.7,63.0,29.67,South,170,4.0,5.0,74,0.00,,,0.00,WeatherCatV1.20B785,2013-10-07 02:52:00,
2013-10-06 22:55:00,71.7,63.0,29.67,SSE,166,4.0,6.0,74,0.00,,,0.00,WeatherCatV1.20B785,2013-10-07 02:55:00,
2013-10-06 22:57:00,71.7,63.0,29.67,SSE,166,5.0,5.0,74,0.00,,,0.00,WeatherCatV1.20B785,2013-10-07 02:57:00,
2013-10-06 23:00:00,71.6,62.8,29.67,SSE,164,4.0,6.0,74,0.00,,,0.00,WeatherCatV1.20B785,2013-10-07 03:00:00,
2013-10-06 23:02:00,71.7,62.6,29.67,SSE,162,5.0,6.0,73,0.00,,,0.00,WeatherCatV1.20B785,2013-10-07 03:02:00,
2013-10-06 23:05:00,71.8,62.7,29.67,SSE,163,4.0,6.0,73,0.00,,,0.00,WeatherCatV1.20B785,2013-10-07 03:05:00,
2013-10-06 23:07:00,71.8,62.7,29.67,SSE,161,5.0,6.0,73,0.00,,,0.00,WeatherCatV1.20B785,2013-10-07 03:07:00,
2013-10-06 23:10:00,71.9,62.8,29.67,SSE,164,4.0,8.0,73,0.00,,,0.00,WeatherCatV1.20B785,2013-10-07 03:10:00,
2013-10-06 23:12:00,71.9,62.8,29.67,South,173,5.0,7.0,73,0.00,,,0.00,WeatherCatV1.20B785,2013-10-07 03:12:00,
2013-10-06 23:15:00,71.9,62.8,29.67,SSE,166,5.0,8.0,73,0.00,,,0.00,WeatherCatV1.20B785,2013-10-07 03:15:00,
2013-10-06 23:17:00,71.9,62.4,29.67,SSE,159,6.0,8.0,72,0.00,,,0.00,WeatherCatV1.20B785,2013-10-07 03:17:00,
2013-10-06 23:20:00,72.0,62.5,29.67,SSE,163,5.0,6.0,72,0.00,,,0.00,WeatherCatV1.20B785,2013-10-07 03:20:00,
2013-10-06 23:22:00,72.1,62.2,29.67,South,169,3.0,13.0,71,0.00,,,0.00,WeatherCatV1.20B785,2013-10-07 03:22:00,
2013-10-06 23:25:00,72.2,62.3,29.67,SSE,163,5.0,8.0,71,0.00,,,0.00,WeatherCatV1.20B785,2013-10-07 03:25:00,
2013-10-06 23:27:00,72.4,62.5,29.67,SSE,165,3.0,10.0,71,0.00,,,0.00,WeatherCatV1.20B785,2013-10-07 03:27:00,
2013-10-06 23:30:00,72.4,62.0,29.67,SSE,167,6.0,9.0,70,0.00,,,0.00,WeatherCatV1.20B785,2013-10-07 03:30:00,
2013-10-06 23:32:00,72.5,62.5,29.67,SSE,159,5.0,8.0,71,0.00,,,0.00,WeatherCatV1.20B785,2013-10-07 03:32:00,
2013-10-06 23:35:00,72.4,62.5,29.67,SSE,162,5.0,6.0,71,0.00,,,0.00,WeatherCatV1.20B785,2013-10-07 03:35:00,
2013-10-06 23:37:00,72.4,62.0,29.67,SW,217,5.0,6.0,70,0.00,,,0.00,WeatherCatV1.20B785,2013-10-07 03:37:00,
2013-10-06 23:40:00,72.4,62.0,29.67,SSE,166,5.0,10.0,70,0.00,,,0.00,WeatherCatV1.20B785,2013-10-07 03:40:00,
2013-10-06 23:42:00,72.5,62.1,29.66,South,173,6.0,9.0,70,0.00,,,0.00,WeatherCatV1.20B785,2013-10-07 03:42:00,
2013-10-06 23:45:00,72.5,62.2,29.66,SSE,162,6.0,9.0,70,0.00,,,0.00,WeatherCatV1.20B785,2013-10-07 03:45:00,
2013-10-06 23:47:00,72.5,61.7,29.67,South,169,5.0,11.0,69,0.00,,,0.00,WeatherCatV1.20B785,2013-10-07 03:47:00,
2013-10-06 23:50:00,72.5,61.7,29.67,South,169,6.0,8.0,69,0.00,,,0.00,WeatherCatV1.20B785,2013-10-07 03:50:00,
2013-10-06 23:52:00,72.5,61.7,29.67,SSE,161,4.0,8.0,69,0.00,,,0.00,WeatherCatV1.20B785,2013-10-07 03:52:00,
2013-10-06 23:55:00,72.5,61.7,29.67,South,172,5.0,5.0,69,0.00,,,0.00,WeatherCatV1.20B785,2013-10-07 03:55:00,
2013-10-06 23:57:00,72.5,61.7,29.67,South,173,3.0,5.0,69,0.00,,,0.00,WeatherCatV1.20B785,2013-10-07 03:57:00,